[{"header": {"dx": 0.06612293990616946, "dy": 0.0552356325346848, "nx": 98, "ny": 59, "la1": 35.046912555036876, "la2": 31.78801023549047, "lo1": -121.43107172385933, "lo2": -114.95102361305473, "refTime": "2026041222", "parameterCategory": 1, "parameterNumber": 2}, "data": [13.81, 13.81, 12.51, 12.27, 11.64, 11.52, 10.97, 10.97, 10.97, 9.87, 9.27, 8.64, 9.88, 8.82, 8.12, 8.47, 8.47, 8.47, 8.49, 8.49, 8.82, 8.82, 8.02, 7.59, 7.59, 7.9, 8.22, 8.22, 8.53, 9.0, 8.31, 8.31, 8.31, 7.27, 8.3, 2.28, 3.82, 5.59, 5.84, 6.7, 7.6, 8.8, 11.62, 10.37, 10.12, 10.52, 10.63, 10.91, 9.43, 8.93, 8.06, 8.06, 8.99, 8.99, 9.49, 10.34, 11.06, 11.88, 11.2, 11.6, 11.25, 11.28, 10.66, 10.37, 10.03, 10.38, 11.68, 10.92, 9.52, 9.12, 9.77, 11.47, 12.87, 14.46, 14.39, 14.58, 13.49, 12.82, 13.86, 10.73, 9.63, 10.66, 5.95, -0.0, -0.0, 2.2, 4.0, 4.98, 5.67, 4.21, 1.84, 0.96, 2.81, 4.65, 6.53, 7.19, 6.96, 6.0, 13.88, 13.81, 13.48, 12.27, 12.09, 11.52, 11.3, 11.3, 10.43, 9.87, 8.97, 9.17, 8.75, 8.02, 9.46, 9.09, 8.12, 9.46, 9.09, 7.68, 9.16, 9.16, 7.85, 8.22, 7.06, 7.13, 7.59, 7.9, 8.31, 8.31, 7.78, 7.1, 6.84, 7.48, 6.28, 0.0, 0.0, 3.6, 5.31, 6.32, 8.18, 11.62, 10.37, 9.5, 9.92, 10.9, 11.43, 10.91, 9.42, 8.18, 8.43, 8.99, 8.99, 8.94, 9.66, 10.75, 11.54, 11.54, 11.6, 11.6, 11.64, 11.28, 10.37, 9.64, 9.64, 10.43, 10.11, 9.25, 8.86, 10.05, 11.25, 12.57, 13.26, 13.87, 14.16, 14.05, 12.7, 12.82, 13.86, 10.73, 9.63, 10.66, 5.95, -0.0, -0.0, 2.2, 4.0, 4.98, 5.67, 4.21, 1.84, 0.96, 2.81, 4.65, 6.53, 7.19, 6.96, 6.0, 13.96, 13.99, 13.48, 12.9, 12.09, 11.52, 11.3, 11.3, 10.75, 9.57, 8.37, 6.88, 8.69, 9.17, 8.79, 8.47, 8.82, 8.82, 8.82, 9.5, 8.35, 8.22, 7.56, 7.85, 8.15, 6.83, 6.83, 6.83, 6.83, 6.7, 6.48, 6.31, 6.08, 6.4, 4.58, 8.49, 0.0, 1.75, 4.2, 8.55, 10.79, 9.13, 8.93, 9.37, 11.2, 11.45, 12.27, 10.65, 8.31, 8.18, 8.72, 9.11, 8.84, 9.7, 10.12, 11.54, 11.54, 11.87, 11.6, 11.25, 11.64, 9.96, 9.17, 8.49, 8.85, 9.27, 8.68, 8.86, 9.66, 10.95, 12.12, 13.7, 13.27, 13.49, 13.83, 12.79, 12.15, 13.44, 12.87, 9.48, 10.68, 11.62, 3.53, -0.0, 1.4, 2.91, 4.31, 4.98, 5.86, 5.11, 4.08, 2.35, 3.53, 5.16, 6.53, 7.19, 7.19, 6.0, 14.22, 13.96, 13.48, 13.19, 12.09, 11.52, 11.3, 11.3, 10.43, 9.27, 8.53, 7.59, 9.53, 8.73, 8.82, 8.82, 9.17, 9.08, 9.53, 8.35, 7.42, 6.87, 7.15, 7.72, 6.98, 7.85, 6.83, 6.48, 5.63, 4.6, 4.62, 5.2, 5.86, 6.4, 4.4, 4.2, 6.95, 11.18, 11.62, 10.47, 8.28, 8.9, 9.54, 10.43, 9.92, 10.08, 9.27, 8.45, 8.05, 9.24, 9.02, 8.95, 9.36, 9.8, 10.51, 11.25, 11.6, 11.6, 11.25, 11.64, 10.63, 9.17, 8.31, 8.65, 7.82, 8.06, 8.29, 8.68, 10.23, 11.06, 12.9, 13.71, 13.7, 12.59, 13.19, 12.56, 11.6, 11.77, 15.34, 10.73, 10.4, 10.8, 2.61, 1.58, 2.35, 4.04, 5.02, 4.87, 5.86, 6.88, 7.42, 5.04, 4.58, 5.36, 6.53, 7.19, 7.44, 6.36, 14.22, 13.96, 13.7, 12.65, 12.09, 11.52, 11.3, 11.3, 10.97, 9.8, 8.53, 7.59, 8.75, 8.94, 8.47, 9.17, 8.69, 9.08, 8.53, 7.41, 7.28, 6.5, 6.24, 6.76, 6.59, 6.5, 6.5, 6.2, 4.4, 3.65, 4.6, 5.29, 5.98, 5.98, 5.54, 5.54, 6.2, 9.17, 11.06, 8.78, 7.57, 8.27, 7.97, 7.63, 8.18, 8.18, 8.66, 8.95, 8.95, 9.36, 9.06, 8.72, 9.48, 10.58, 11.25, 11.25, 11.25, 11.25, 11.25, 10.98, 9.17, 8.05, 7.97, 8.05, 7.67, 7.93, 8.29, 9.12, 10.43, 10.98, 12.01, 14.59, 15.74, 15.92, 12.27, 10.65, 11.02, 11.2, 13.57, 11.88, 11.4, 7.02, 3.17, 3.3, 3.95, 5.06, 5.79, 6.4, 6.52, 8.46, 8.65, 7.69, 6.21, 5.8, 7.19, 7.38, 7.63, 7.03, 14.22, 13.96, 13.07, 12.65, 12.09, 11.52, 11.3, 10.97, 10.97, 9.8, 8.53, 7.27, 8.94, 8.58, 8.94, 8.41, 8.22, 7.95, 7.41, 6.44, 6.44, 6.48, 7.11, 7.54, 7.02, 6.7, 6.45, 5.0, 4.4, 4.4, 4.98, 5.63, 6.4, 6.4, 7.44, 6.9, 7.96, 10.36, 11.58, 7.77, 5.78, 6.4, 6.65, 8.05, 8.45, 8.84, 9.7, 9.8, 9.48, 9.17, 8.12, 8.72, 10.22, 10.58, 11.25, 11.25, 11.25, 10.92, 10.92, 9.89, 8.21, 6.78, 7.36, 7.32, 8.03, 8.99, 8.86, 8.99, 10.54, 11.29, 11.47, 12.9, 14.31, 15.14, 16.1, 13.33, 11.2, 11.2, 11.21, 12.07, 8.53, 3.32, 4.1, 4.85, 4.81, 5.79, 6.47, 7.59, 9.09, 9.27, 8.72, 8.45, 7.63, 6.79, 7.63, 7.63, 7.63, 7.03, 14.22, 13.96, 13.07, 12.65, 12.09, 11.52, 11.52, 11.52, 11.17, 10.36, 9.02, 7.35, 8.58, 8.58, 8.53, 7.9, 7.95, 8.24, 6.94, 6.44, 6.67, 7.36, 8.18, 8.68, 8.83, 8.18, 8.43, 5.63, 5.8, 6.24, 6.7, 6.01, 4.88, 4.88, 5.64, 7.13, 8.78, 9.8, 8.87, 4.98, 5.02, 5.27, 6.2, 7.36, 8.72, 9.6, 10.65, 10.84, 9.17, 8.85, 8.24, 9.17, 10.22, 10.58, 10.58, 10.58, 10.58, 10.24, 9.89, 8.72, 6.53, 5.63, 5.96, 7.2, 8.03, 8.99, 10.05, 9.39, 9.6, 11.47, 11.54, 12.37, 13.65, 14.57, 14.99, 14.75, 13.39, 11.39, 8.53, 5.72, 4.33, 4.85, 6.59, 6.42, 6.35, 6.6, 7.59, 9.09, 9.54, 8.87, 8.73, 8.66, 8.31, 8.05, 8.18, 7.38, 8.05, 7.03, 13.77, 13.96, 13.07, 12.79, 12.09, 12.09, 11.52, 11.52, 11.17, 10.02, 8.35, 6.95, 7.81, 7.27, 8.01, 6.71, 7.41, 7.96, 6.67, 6.0, 6.51, 8.05, 8.73, 9.39, 9.12, 10.75, 9.77, 7.2, 9.22, 10.47, 7.24, 4.48, 3.96, 3.96, 5.43, 6.94, 8.54, 8.41, 8.22, 5.77, 4.55, 6.2, 8.53, 9.42, 9.88, 9.87, 10.43, 10.84, 9.48, 9.48, 8.64, 9.56, 10.58, 10.58, 10.98, 10.63, 9.96, 9.96, 9.26, 7.36, 5.43, 5.02, 5.79, 7.2, 8.16, 9.66, 10.95, 11.06, 11.2, 12.0, 12.65, 13.77, 14.11, 14.53, 14.74, 14.05, 13.39, 9.8, 5.93, 6.54, 7.88, 7.3, 8.19, 8.06, 7.93, 7.77, 8.46, 9.97, 9.36, 9.06, 8.79, 8.01, 8.05, 8.05, 7.63, 8.05, 7.44, 7.03, 13.77, 13.96, 13.07, 12.5, 12.65, 12.09, 12.09, 12.09, 11.72, 10.23, 8.75, 8.22, 8.1, 7.54, 8.15, 8.15, 7.78, 6.51, 6.0, 5.45, 6.0, 7.44, 8.05, 8.31, 8.44, 6.98, 5.9, 8.31, 11.06, 10.12, 7.13, 5.64, 4.81, 6.2, 7.51, 7.56, 8.73, 7.9, 6.58, 6.87, 6.87, 7.82, 8.85, 7.51, 9.48, 9.17, 10.43, 10.43, 10.12, 9.8, 9.48, 9.17, 10.58, 10.58, 10.63, 9.62, 8.93, 8.53, 7.78, 6.42, 4.97, 5.02, 5.91, 7.32, 8.86, 10.34, 12.56, 12.65, 13.16, 13.37, 13.99, 14.08, 14.69, 14.08, 13.72, 13.15, 10.97, 6.6, 6.35, 7.88, 9.79, 8.65, 9.5, 9.34, 8.76, 8.66, 8.73, 9.17, 8.85, 8.85, 8.49, 7.63, 6.77, 7.89, 7.89, 7.69, 7.69, 7.03, 13.59, 13.15, 13.07, 12.5, 12.65, 12.09, 12.09, 12.09, 11.72, 10.23, 9.42, 9.17, 8.53, 9.48, 9.8, 9.48, 8.31, 6.6, 6.6, 6.0, 8.1, 8.1, 7.69, 8.94, 8.94, 8.22, 6.64, 6.44, 10.43, 8.94, 8.85, 9.92, 8.05, 8.66, 8.53, 8.73, 8.38, 6.64, 7.44, 8.44, 8.1, 8.67, 7.78, 8.64, 8.64, 8.93, 9.62, 10.28, 10.24, 9.48, 9.8, 10.12, 10.18, 9.89, 9.96, 9.26, 8.22, 7.72, 5.98, 5.16, 4.52, 5.06, 6.74, 8.29, 9.77, 11.14, 12.98, 14.42, 13.11, 13.05, 13.32, 12.89, 13.75, 14.25, 13.82, 11.57, 7.21, 5.79, 7.2, 8.74, 10.51, 11.36, 10.73, 10.43, 9.58, 9.02, 9.17, 9.23, 8.9, 8.9, 8.16, 6.87, 7.19, 7.44, 8.31, 7.26, 7.26, 6.65, 13.53, 13.15, 13.07, 12.9, 12.27, 12.65, 12.65, 12.65, 11.29, 10.59, 9.76, 10.43, 10.52, 10.52, 10.99, 10.12, 10.02, 8.68, 10.3, 12.01, 13.39, 13.39, 12.01, 11.33, 11.52, 9.17, 7.27, 5.29, 7.78, 9.8, 11.12, 9.96, 8.53, 7.9, 8.94, 10.04, 8.93, 8.22, 8.02, 9.8, 10.12, 9.48, 8.22, 8.82, 8.49, 7.97, 9.04, 8.65, 8.31, 8.53, 9.11, 10.54, 10.54, 9.89, 9.11, 9.27, 9.12, 7.44, 3.82, 2.9, 4.21, 5.87, 7.2, 8.16, 9.92, 12.33, 13.23, 14.57, 14.21, 12.51, 11.62, 11.8, 13.2, 13.94, 12.62, 6.98, 5.18, 6.54, 8.25, 9.92, 10.7, 11.95, 12.07, 11.01, 10.43, 9.48, 9.2, 8.9, 8.22, 7.52, 6.97, 6.72, 6.31, 6.53, 7.44, 7.03, 6.65, 7.25, 13.53, 13.15, 13.07, 12.9, 12.27, 12.65, 12.65, 12.65, 11.9, 11.16, 10.73, 11.09, 11.2, 10.86, 10.18, 9.5, 9.42, 11.1, 12.87, 14.4, 14.03, 13.65, 13.27, 13.8, 11.5, 10.12, 9.77, 5.69, 9.3, 8.82, 9.6, 9.86, 9.86, 8.34, 9.38, 8.99, 8.42, 9.53, 9.36, 10.02, 10.36, 10.02, 9.02, 8.59, 7.9, 7.02, 7.9, 7.56, 6.97, 6.97, 6.9, 8.74, 9.09, 8.2, 7.65, 7.6, 8.03, 7.28, -0.0, -0.95, 3.26, 7.22, 7.4, 8.29, 8.99, 11.91, 14.01, 13.17, 13.84, 13.58, 12.02, 11.44, 12.18, 12.3, 7.78, 5.46, 6.35, 8.03, 9.59, 10.8, 12.33, 12.45, 12.22, 11.47, 10.15, 9.53, 8.93, 8.6, 7.9, 7.36, 7.1, 6.48, 6.08, 6.08, 6.56, 7.38, 7.25, 7.49, 13.53, 13.15, 13.07, 12.9, 12.9, 12.9, 12.9, 11.9, 11.9, 11.53, 11.09, 11.44, 11.8, 11.54, 11.88, 12.16, 11.44, 10.73, 10.99, 11.37, 11.37, 11.99, 12.72, 12.72, 12.72, 12.25, 12.25, 12.25, 11.21, 9.42, 10.18, 10.62, 10.62, 10.21, 9.4, 8.99, 8.82, 9.3, 9.17, 9.53, 9.88, 9.88, 9.53, 7.74, 6.95, 6.3, 5.69, 5.86, 5.86, 5.64, 5.77, 6.44, 5.9, 5.41, 5.71, 6.87, 9.09, 8.88, 1.28, -2.72, 0.85, 6.59, 7.93, 6.73, 7.23, 9.18, 12.15, 14.33, 12.73, 13.64, 11.9, 12.64, 12.65, 7.28, 4.81, 6.3, 8.47, 10.31, 11.24, 11.7, 11.49, 11.95, 11.17, 11.64, 10.92, 10.99, 11.07, 8.85, 7.59, 7.48, 6.15, 5.14, 4.68, 5.86, 6.56, 7.38, 7.25, 7.13, 13.53, 13.15, 12.66, 13.07, 12.9, 12.5, 12.5, 12.5, 12.5, 12.5, 11.44, 11.44, 11.8, 11.54, 12.87, 12.87, 12.87, 12.16, 12.51, 12.13, 13.07, 13.07, 13.99, 14.84, 15.27, 15.27, 13.96, 13.96, 13.79, 12.9, 11.57, 11.55, 11.95, 10.18, 9.75, 8.99, 8.21, 8.23, 8.23, 8.93, 9.67, 8.94, 9.3, 7.9, 6.95, 6.3, 5.06, 5.92, 5.92, 5.64, 5.92, 5.2, 4.24, 4.38, 5.27, 6.33, 9.8, 11.45, 6.6, -0.0, -0.0, 4.66, 7.06, 6.29, 5.06, 6.47, 8.3, 9.58, 12.65, 13.61, 14.05, 10.89, 7.32, 3.82, 6.09, 8.47, 10.57, 12.07, 12.33, 12.16, 11.6, 11.66, 11.5, 12.27, 10.81, 10.58, 10.58, 9.8, 7.48, 7.13, 5.64, 4.6, 5.0, 6.56, 6.53, 7.63, 7.49, 7.36, 13.53, 13.44, 12.98, 13.07, 13.07, 13.07, 12.5, 12.5, 12.5, 12.13, 11.44, 11.8, 11.8, 12.16, 12.87, 13.23, 13.23, 14.03, 13.65, 13.68, 13.89, 13.89, 14.84, 15.27, 15.71, 16.44, 15.99, 15.65, 15.2, 14.75, 13.86, 12.52, 12.07, 10.58, 9.75, 8.8, 8.55, 7.51, 9.3, 8.72, 9.1, 9.67, 8.93, 8.38, 6.64, 6.3, 5.72, 5.98, 6.24, 6.24, 6.98, 5.98, 6.3, 5.31, 5.59, 5.21, 7.27, 9.31, 8.06, 3.47, 2.37, 4.48, 5.8, 4.58, 5.73, 5.92, 6.74, 9.17, 11.43, 14.78, 14.0, 12.99, 6.1, 4.38, 7.53, 10.05, 12.07, 13.07, 13.53, 12.87, 12.65, 12.03, 11.04, 10.87, 9.27, 10.22, 9.8, 9.48, 8.07, 8.02, 5.75, 4.5, 5.99, 7.28, 7.38, 6.52, 7.36, 7.36, 13.53, 13.44, 12.98, 13.57, 13.07, 13.07, 13.07, 13.07, 12.5, 12.13, 11.8, 11.8, 11.1, 11.44, 12.52, 12.87, 14.46, 14.85, 14.4, 14.46, 14.71, 14.71, 15.41, 16.22, 16.46, 16.54, 16.54, 16.09, 15.65, 15.12, 15.12, 15.2, 13.86, 11.46, 9.75, 7.58, 7.87, 8.34, 9.3, 9.6, 8.72, 9.1, 8.93, 6.95, 6.95, 6.3, 5.46, 6.3, 6.58, 6.95, 7.27, 7.27, 6.95, 6.32, 5.31, 5.31, 4.96, 6.16, 6.0, 6.67, 4.87, 5.43, 5.43, 5.43, 5.92, 5.86, 7.51, 9.8, 12.29, 14.5, 14.42, 11.62, 8.84, 6.3, 9.23, 12.07, 14.13, 14.3, 14.03, 14.42, 14.2, 14.39, 12.74, 10.03, 8.22, 8.22, 9.17, 9.48, 8.97, 7.62, 6.56, 6.77, 7.19, 7.44, 6.67, 6.57, 7.34, 7.34, 13.53, 13.44, 13.39, 13.15, 13.15, 13.07, 13.07, 13.48, 12.13, 11.44, 11.8, 11.1, 11.44, 11.44, 11.77, 13.02, 13.68, 14.46, 14.4, 14.85, 15.11, 15.41, 15.83, 16.01, 16.09, 15.99, 15.99, 15.99, 15.71, 16.15, 16.88, 16.99, 16.09, 14.03, 7.76, 7.58, 7.96, 8.38, 8.82, 8.82, 9.6, 6.79, 7.56, 6.32, 6.58, 6.58, 6.58, 6.58, 7.9, 8.18, 7.81, 7.81, 7.21, 6.64, 6.64, 6.64, 6.3, 7.27, 7.9, 8.53, 7.95, 6.69, 6.3, 6.3, 6.95, 6.64, 7.9, 8.85, 10.75, 13.91, 16.52, 12.07, 10.41, 9.0, 11.42, 13.46, 15.62, 15.8, 16.39, 14.99, 13.97, 12.86, 11.42, 9.36, 8.72, 8.22, 8.64, 8.21, 6.65, 7.36, 7.44, 6.77, 7.19, 7.34, 7.49, 6.67, 7.44, 7.44, 13.53, 13.44, 13.39, 13.57, 13.15, 13.15, 13.07, 12.79, 12.51, 11.8, 11.1, 11.44, 11.44, 11.44, 12.0, 12.65, 13.02, 12.87, 13.23, 14.46, 15.41, 16.03, 15.57, 15.12, 15.65, 16.09, 16.41, 16.41, 16.54, 17.43, 17.3, 17.46, 17.46, 15.07, 11.44, 8.15, 7.76, 8.82, 9.2, 8.82, 8.43, 7.68, 6.95, 6.95, 6.58, 6.58, 7.9, 7.9, 8.18, 8.54, 8.18, 8.18, 6.95, 6.95, 6.95, 7.56, 7.56, 7.9, 7.59, 7.9, 7.27, 6.98, 7.27, 7.56, 7.81, 7.96, 8.72, 8.93, 8.22, 12.65, 17.36, 14.5, 14.22, 12.64, 13.34, 14.85, 15.82, 16.56, 16.79, 14.36, 12.86, 12.71, 11.38, 9.4, 8.72, 8.21, 6.79, 6.79, 7.36, 8.29, 8.43, 7.25, 6.44, 7.34, 7.49, 7.89, 7.9, 7.9, 13.53, 13.44, 13.53, 13.57, 13.15, 13.15, 13.07, 12.13, 11.8, 11.2, 11.1, 11.44, 11.77, 11.77, 12.0, 12.9, 11.1, 11.06, 12.35, 13.59, 14.99, 15.27, 13.99, 14.36, 13.2, 15.36, 13.32, 15.19, 14.51, 13.65, 14.95, 15.7, 15.7, 15.87, 14.53, 11.99, 9.42, 9.06, 9.33, 10.6, 9.2, 8.72, 8.55, 7.56, 7.9, 7.9, 8.18, 8.54, 8.54, 8.54, 8.18, 7.68, 7.68, 8.18, 8.18, 7.9, 6.95, 7.59, 7.56, 8.22, 7.9, 7.59, 7.81, 7.15, 7.51, 8.99, 8.99, 8.93, 8.8, 11.56, 14.6, 14.85, 19.27, 18.54, 17.28, 15.94, 15.56, 15.69, 16.12, 15.78, 12.76, 12.71, 11.25, 9.56, 8.72, 7.38, 7.36, 7.48, 7.45, 7.93, 9.12, 8.18, 6.65, 6.57, 8.57, 8.45, 8.05, 8.05, 13.53, 13.53, 13.53, 13.15, 13.15, 12.66, 13.07, 12.13, 11.2, 10.43, 10.43, 10.75, 11.06, 10.39, 11.69, 11.36, 11.03, 11.03, 11.88, 12.89, 14.75, 11.38, 10.6, 11.35, 11.7, 12.56, 12.56, 12.03, 13.26, 13.74, 14.51, 15.06, 15.59, 16.09, 16.12, 14.28, 12.51, 11.44, 10.14, 8.38, 8.48, 8.67, 8.67, 8.24, 7.85, 9.7, 9.2, 9.45, 9.04, 8.4, 7.81, 7.33, 7.33, 8.18, 6.79, 6.18, 6.87, 6.53, 8.02, 8.82, 7.81, 7.9, 8.0, 8.0, 7.81, 8.18, 8.82, 9.77, 9.97, 11.96, 14.11, 15.56, 21.97, 22.93, 18.78, 16.99, 16.09, 16.06, 13.64, 12.89, 12.65, 13.16, 12.27, 10.85, 8.12, 7.54, 7.34, 7.77, 8.01, 8.01, 8.99, 9.25, 8.31, 7.49, 8.46, 9.16, 8.05, 8.05, 13.53, 13.53, 13.15, 13.15, 13.15, 12.66, 11.75, 10.86, 10.43, 10.75, 9.71, 9.33, 9.61, 9.77, 10.47, 11.06, 10.97, 11.03, 10.23, 12.16, 12.9, 10.99, 10.99, 12.03, 13.92, 13.92, 13.18, 14.33, 14.71, 15.45, 15.99, 15.59, 16.09, 16.09, 16.12, 15.69, 14.31, 12.79, 11.46, 10.14, 9.11, 9.33, 9.24, 8.95, 8.55, 9.6, 8.8, 9.04, 9.45, 8.8, 7.67, 7.33, 7.33, 6.95, 6.58, 6.48, 6.83, 7.27, 8.73, 7.9, 8.37, 8.0, 8.0, 8.37, 7.76, 8.42, 9.89, 10.4, 10.43, 11.61, 12.8, 14.84, 21.42, 21.27, 18.29, 16.93, 16.79, 16.0, 14.03, 13.87, 13.87, 13.64, 12.94, 10.54, 8.05, 7.25, 7.98, 8.61, 8.61, 8.1, 8.18, 8.99, 9.11, 8.29, 8.66, 9.06, 8.01, 8.01, 13.53, 13.15, 13.15, 13.15, 12.66, 12.11, 11.09, 10.12, 10.43, 9.89, 9.12, 8.43, 8.43, 8.97, 10.47, 11.63, 11.3, 11.52, 12.09, 13.55, 13.41, 13.06, 12.7, 13.39, 15.19, 15.99, 15.59, 14.79, 14.79, 15.46, 15.87, 16.09, 16.09, 16.54, 16.12, 16.12, 15.18, 13.44, 12.14, 10.84, 9.92, 9.24, 8.82, 9.24, 9.2, 8.8, 9.86, 9.46, 8.91, 8.4, 6.98, 7.33, 6.95, 6.3, 6.3, 6.58, 7.59, 8.02, 8.73, 8.18, 7.15, 8.12, 8.12, 8.03, 8.38, 9.76, 10.56, 10.4, 10.4, 11.16, 11.29, 14.7, 18.5, 19.52, 8.53, 11.72, 15.99, 16.61, 15.77, 14.42, 14.71, 13.29, 11.88, 9.67, 8.43, 7.36, 7.98, 9.35, 9.25, 8.1, 8.58, 9.66, 9.73, 9.1, 8.46, 8.46, 7.93, 7.93, 13.53, 13.53, 13.15, 13.15, 12.66, 11.75, 10.86, 10.12, 10.43, 9.89, 8.83, 8.06, 9.39, 11.06, 12.35, 12.82, 12.45, 12.09, 12.45, 13.55, 14.13, 13.39, 13.29, 13.29, 14.46, 15.24, 15.63, 15.24, 15.19, 14.65, 15.06, 15.69, 15.69, 15.69, 16.05, 16.05, 15.61, 14.31, 12.58, 11.28, 10.08, 9.66, 9.24, 8.4, 8.8, 8.43, 11.03, 8.91, 8.0, 7.33, 6.64, 6.95, 6.95, 6.95, 6.01, 6.3, 7.27, 8.31, 9.09, 7.28, 7.13, 7.27, 7.9, 8.31, 9.0, 10.12, 10.94, 9.81, 9.16, 8.69, 9.48, 11.7, 18.95, 3.33, 6.5, 9.57, 12.79, 15.49, 16.64, 17.02, 14.49, 13.25, 10.65, 8.99, 8.53, 8.43, 8.18, 9.39, 9.94, 10.11, 9.02, 9.43, 9.48, 9.17, 8.46, 8.16, 7.73, 7.73, 13.53, 13.53, 13.15, 13.15, 12.39, 11.75, 10.52, 10.86, 11.2, 10.75, 9.73, 10.02, 12.02, 13.58, 13.99, 14.3, 13.99, 12.65, 13.42, 13.18, 13.76, 14.13, 13.39, 12.9, 13.29, 14.46, 15.24, 15.93, 16.19, 15.96, 15.12, 15.27, 15.27, 15.61, 15.61, 15.61, 15.61, 14.75, 13.01, 11.21, 9.92, 9.49, 9.66, 9.2, 7.82, 8.0, 9.6, 8.8, 8.18, 8.18, 7.27, 6.95, 6.95, 6.32, 6.32, 6.64, 5.89, 7.59, 8.49, 8.38, 6.01, 5.36, 7.9, 8.93, 9.34, 11.21, 10.94, 10.37, 8.38, 8.12, 8.37, 15.99, 20.22, 16.61, 14.59, 14.57, 14.03, 13.27, 14.68, 15.61, 15.61, 12.13, 10.07, 9.5, 9.77, 9.89, 9.6, 10.31, 11.5, 11.83, 10.12, 9.48, 9.17, 8.9, 7.85, 7.44, 7.44, 7.44, 13.53, 13.53, 13.53, 13.15, 13.15, 12.39, 11.75, 11.64, 12.0, 12.65, 12.65, 12.65, 14.38, 15.18, 15.18, 14.65, 13.99, 13.29, 13.29, 13.39, 13.39, 14.13, 14.13, 13.76, 13.02, 13.68, 15.52, 16.19, 16.19, 15.77, 15.96, 15.96, 15.18, 15.18, 15.61, 15.61, 15.87, 15.43, 13.8, 11.64, 9.92, 9.49, 9.13, 8.99, 8.6, 8.72, 8.4, 8.25, 8.25, 8.67, 8.14, 9.2, 6.98, 6.98, 6.32, 6.32, 6.64, 6.01, 7.27, 6.95, 6.14, 5.53, 7.68, 9.0, 9.66, 11.21, 9.3, 9.3, 9.0, 9.63, 10.6, 12.39, 14.88, 18.02, 15.8, 16.91, 17.39, 16.12, 14.4, 11.88, 13.77, 12.05, 10.31, 9.95, 10.34, 10.43, 10.51, 10.92, 11.6, 11.87, 12.76, 10.65, 9.17, 8.85, 7.44, 7.85, 7.52, 7.52, 13.53, 13.53, 13.53, 13.15, 13.15, 12.39, 12.39, 12.79, 13.19, 13.19, 13.59, 14.23, 14.84, 14.84, 14.65, 13.58, 13.58, 12.73, 13.27, 12.52, 12.52, 12.87, 13.59, 14.13, 14.46, 14.07, 14.71, 15.77, 16.19, 16.7, 16.39, 16.39, 16.05, 16.31, 15.87, 15.87, 15.87, 15.87, 15.39, 13.19, 10.78, 9.85, 8.99, 8.99, 9.4, 9.55, 9.49, 8.67, 8.84, 9.28, 9.24, 8.91, 8.43, 7.68, 6.64, 6.64, 6.64, 6.01, 6.01, 6.69, 7.27, 7.9, 7.06, 8.38, 9.4, 9.69, 8.53, 8.42, 8.68, 8.12, 7.59, 9.76, 12.16, 14.86, 18.65, 16.42, 17.16, 15.92, 14.39, 10.73, 10.99, 11.25, 10.27, 9.73, 10.78, 12.22, 11.6, 11.64, 11.28, 10.9, 11.2, 10.43, 9.32, 8.72, 7.85, 8.53, 7.52, 7.52, 13.59, 13.59, 13.53, 13.15, 13.15, 13.15, 13.15, 13.15, 13.28, 13.19, 13.59, 14.11, 14.53, 13.59, 13.68, 12.52, 11.88, 11.88, 11.88, 11.88, 11.88, 12.52, 12.87, 13.76, 14.46, 14.46, 14.94, 15.36, 15.77, 16.27, 16.39, 16.71, 16.71, 16.71, 16.31, 16.31, 16.31, 16.31, 16.27, 14.99, 13.15, 11.45, 10.28, 9.33, 9.85, 9.85, 10.12, 9.36, 8.94, 8.94, 9.21, 8.34, 7.87, 7.76, 7.87, 7.15, 8.18, 6.32, 5.69, 6.32, 8.15, 7.76, 9.09, 7.68, 9.08, 7.59, 7.36, 8.65, 9.3, 8.93, 8.12, 8.93, 10.92, 12.33, 13.61, 17.39, 15.69, 15.53, 12.22, 9.62, 9.3, 10.43, 10.12, 9.85, 11.17, 12.42, 12.89, 12.89, 11.66, 10.65, 10.22, 10.75, 10.47, 9.27, 9.17, 8.22, 6.71, 6.71, 13.59, 13.59, 13.53, 13.53, 13.15, 13.27, 13.27, 12.87, 13.02, 12.56, 12.95, 13.34, 13.34, 13.34, 12.45, 11.36, 11.77, 11.06, 11.88, 11.88, 11.88, 12.52, 12.52, 13.68, 14.07, 14.07, 14.39, 14.94, 15.84, 15.96, 16.27, 16.27, 16.71, 16.71, 16.76, 16.48, 16.31, 16.71, 16.27, 15.27, 13.99, 12.42, 10.96, 9.6, 10.08, 9.83, 10.28, 9.83, 9.39, 8.91, 7.13, 6.48, 7.27, 7.68, 8.79, 7.87, 7.81, 6.87, 6.01, 6.73, 8.06, 8.67, 8.42, 8.31, 8.31, 8.53, 8.73, 8.42, 8.68, 9.62, 10.9, 10.66, 10.41, 9.92, 10.95, 13.37, 17.25, 14.84, 13.8, 12.87, 10.98, 11.1, 11.73, 11.18, 11.75, 12.64, 12.9, 13.25, 11.64, 10.99, 10.25, 10.92, 11.38, 10.92, 10.25, 8.72, 6.56, 6.56, 13.79, 13.79, 13.59, 13.59, 13.27, 13.37, 13.02, 13.02, 12.56, 12.36, 13.19, 13.34, 14.24, 13.74, 12.22, 11.3, 11.36, 11.44, 11.54, 11.54, 11.88, 12.52, 12.52, 13.68, 13.68, 14.3, 14.3, 14.94, 15.96, 15.96, 16.27, 16.48, 16.47, 16.47, 16.47, 16.47, 16.47, 16.66, 16.12, 15.69, 15.34, 13.15, 11.4, 9.74, 9.32, 9.83, 10.73, 8.75, 5.57, 5.63, 5.06, 6.14, 6.95, 7.68, 8.38, 8.79, 8.93, 7.9, 7.51, 7.51, 8.05, 8.43, 8.06, 8.35, 8.31, 8.97, 9.4, 9.2, 9.13, 10.0, 11.26, 11.88, 11.2, 11.33, 12.56, 14.18, 15.76, 15.34, 15.22, 14.5, 12.87, 11.23, 12.45, 12.27, 12.79, 12.4, 12.4, 12.23, 11.64, 10.54, 10.99, 11.8, 12.41, 12.4, 11.68, 8.78, 5.43, 5.43, 13.79, 13.79, 13.59, 13.59, 13.27, 13.02, 12.62, 12.79, 12.79, 12.36, 12.79, 14.03, 13.84, 13.42, 12.57, 12.22, 11.36, 11.44, 11.54, 11.54, 11.88, 13.27, 13.27, 13.68, 13.68, 14.3, 13.89, 14.53, 15.53, 15.83, 16.04, 16.04, 16.09, 16.09, 16.54, 16.46, 16.46, 16.15, 16.58, 16.9, 16.01, 14.07, 12.27, 9.77, 8.05, 9.83, 11.03, 7.89, 7.03, 7.36, 6.98, 6.24, 6.95, 6.95, 8.03, 8.68, 9.05, 9.27, 8.93, 8.34, 7.82, 8.05, 8.42, 8.03, 7.27, 8.38, 9.04, 10.24, 8.58, 8.99, 10.0, 10.87, 13.02, 15.27, 15.34, 16.96, 15.59, 14.03, 15.63, 17.41, 16.78, 15.99, 14.62, 13.71, 13.24, 13.57, 12.98, 12.23, 11.28, 11.64, 12.03, 12.79, 13.02, 13.33, 12.02, 8.18, 4.97, 4.97, 13.34, 13.34, 13.59, 13.27, 13.02, 12.62, 12.39, 12.79, 12.36, 12.99, 12.99, 12.99, 13.59, 12.45, 11.69, 11.69, 12.22, 12.35, 12.52, 12.73, 12.73, 13.27, 13.27, 13.68, 13.68, 14.3, 14.11, 13.7, 14.95, 15.58, 16.09, 15.65, 15.65, 15.65, 16.01, 16.01, 16.46, 16.46, 16.46, 16.99, 16.46, 15.14, 12.9, 10.73, 8.9, 10.23, 11.12, 10.12, 9.62, 8.97, 7.72, 6.64, 7.02, 6.64, 7.68, 8.67, 9.27, 10.0, 9.42, 9.38, 8.21, 8.05, 8.82, 8.12, 7.41, 7.81, 8.06, 9.67, 9.48, 9.2, 8.54, 9.16, 12.0, 15.33, 19.08, 17.56, 16.92, 13.59, 13.75, 17.3, 19.57, 19.16, 16.81, 14.15, 14.97, 15.27, 14.3, 13.2, 11.8, 11.64, 12.15, 12.45, 12.7, 12.81, 11.25, 6.8, 4.21, 4.21, 13.34, 13.34, 13.15, 13.27, 12.87, 12.62, 12.39, 12.36, 12.36, 12.99, 12.56, 12.99, 12.99, 13.2, 12.35, 12.35, 12.82, 13.18, 13.39, 12.87, 12.87, 12.87, 13.68, 13.68, 13.68, 13.99, 14.11, 13.7, 15.71, 14.51, 15.58, 15.83, 15.78, 15.34, 15.34, 15.78, 15.83, 16.27, 16.47, 16.46, 16.46, 15.58, 13.79, 11.18, 10.24, 11.14, 12.1, 12.13, 10.25, 8.85, 6.83, 6.32, 6.68, 7.32, 7.92, 8.3, 9.2, 9.6, 9.42, 9.81, 9.6, 8.4, 7.44, 7.44, 7.82, 7.76, 8.58, 9.2, 10.62, 9.32, 7.56, 6.69, 9.42, 13.39, 17.92, 19.59, 14.79, 12.45, 13.91, 15.04, 18.05, 17.9, 16.86, 15.47, 15.61, 15.24, 14.64, 13.65, 12.99, 11.92, 12.3, 12.3, 12.45, 12.6, 10.43, 6.1, 4.52, 4.52, 13.34, 13.34, 13.34, 13.27, 12.87, 12.62, 12.17, 12.36, 12.6, 12.56, 12.81, 12.81, 12.81, 12.56, 12.82, 12.35, 13.42, 13.02, 12.35, 12.11, 13.39, 13.39, 14.07, 13.68, 13.29, 13.59, 14.11, 13.8, 13.37, 15.27, 14.23, 15.09, 15.53, 15.53, 15.53, 15.53, 15.53, 15.96, 15.96, 16.27, 16.27, 16.03, 14.25, 12.07, 10.73, 11.59, 12.39, 12.2, 11.09, 8.64, 6.64, 6.68, 7.32, 7.32, 7.92, 8.3, 8.49, 8.88, 9.27, 9.65, 9.27, 7.82, 8.15, 6.82, 7.42, 8.6, 8.99, 8.56, 9.21, 9.32, 7.27, 7.59, 10.4, 13.39, 17.37, 22.21, 16.79, 13.39, 14.27, 14.75, 16.19, 16.15, 15.61, 15.69, 15.37, 15.41, 15.63, 14.79, 13.47, 12.46, 12.2, 11.61, 12.21, 12.17, 7.93, 5.48, 4.89, 4.89, 13.41, 13.41, 13.34, 12.85, 12.87, 12.62, 12.17, 12.36, 12.18, 12.56, 12.81, 13.41, 13.02, 12.81, 12.45, 12.35, 13.02, 13.02, 12.35, 13.39, 13.39, 13.76, 13.39, 14.07, 13.29, 13.89, 14.11, 14.23, 14.23, 14.23, 14.23, 14.66, 15.18, 15.18, 15.53, 15.53, 15.12, 15.12, 15.69, 16.05, 16.05, 16.31, 15.14, 12.96, 11.62, 11.59, 11.96, 12.2, 11.09, 8.97, 7.31, 7.33, 7.33, 7.59, 7.95, 7.95, 8.55, 8.55, 8.88, 9.27, 10.09, 8.18, 7.44, 7.81, 7.2, 8.6, 9.6, 9.13, 8.15, 7.81, 8.31, 9.86, 11.71, 13.11, 16.86, 21.44, 19.44, 17.58, 15.35, 15.13, 15.44, 14.53, 14.79, 14.75, 14.99, 15.24, 16.16, 15.19, 13.44, 12.27, 11.8, 12.2, 12.14, 10.99, 6.2, 4.24, 5.31, 5.31, 13.41, 13.41, 13.15, 12.85, 12.87, 12.62, 12.17, 12.79, 12.99, 12.99, 13.2, 13.41, 13.41, 12.56, 11.8, 12.45, 12.65, 12.65, 12.65, 13.02, 13.39, 13.39, 13.8, 14.07, 13.68, 13.89, 14.11, 14.23, 14.23, 14.95, 14.95, 14.99, 14.99, 14.95, 15.39, 14.99, 15.41, 15.12, 15.96, 16.05, 16.12, 15.68, 15.15, 13.41, 12.07, 11.59, 11.96, 11.81, 11.16, 10.03, 8.38, 8.03, 7.95, 7.61, 7.61, 8.18, 8.55, 8.55, 8.88, 9.67, 10.04, 9.46, 8.15, 8.15, 8.54, 9.45, 8.21, 8.4, 7.44, 8.42, 9.52, 11.2, 12.42, 13.25, 15.12, 16.38, 18.14, 17.36, 17.59, 15.97, 13.41, 13.54, 13.46, 14.18, 14.39, 14.54, 15.19, 13.88, 13.15, 12.83, 12.39, 11.93, 12.22, 9.77, 5.28, 5.46, 6.4, 6.4, 13.34, 13.34, 13.15, 12.85, 12.87, 13.02, 13.2, 13.2, 13.39, 13.39, 13.59, 13.41, 13.2, 12.13, 11.8, 12.65, 13.03, 12.65, 12.65, 13.02, 13.68, 14.07, 14.39, 14.39, 13.68, 13.29, 14.11, 14.23, 14.23, 14.95, 14.99, 15.15, 14.69, 14.69, 14.47, 14.56, 14.99, 15.09, 15.53, 15.61, 15.61, 15.68, 15.18, 13.36, 12.07, 11.59, 11.54, 11.77, 11.16, 10.48, 9.08, 8.32, 7.61, 7.61, 8.18, 8.18, 8.55, 8.55, 8.55, 9.67, 10.04, 9.3, 9.2, 7.82, 8.4, 9.63, 7.76, 7.76, 8.0, 8.55, 10.21, 10.15, 12.6, 13.55, 14.31, 13.99, 14.33, 16.37, 17.82, 18.63, 15.38, 12.22, 12.16, 12.33, 12.54, 12.81, 13.23, 13.15, 12.85, 12.93, 12.93, 12.47, 12.04, 7.78, 6.67, 8.38, 8.87, 8.87, 12.91, 12.91, 13.15, 12.85, 13.37, 13.44, 13.94, 13.67, 13.77, 13.39, 13.59, 13.2, 12.94, 12.65, 12.27, 12.74, 13.03, 12.65, 13.29, 13.68, 13.68, 13.99, 14.39, 14.07, 13.68, 14.11, 14.11, 14.23, 14.51, 14.99, 14.99, 14.99, 14.51, 14.47, 14.47, 14.4, 14.13, 14.56, 15.09, 15.53, 15.61, 15.61, 14.75, 12.9, 10.25, 10.58, 11.11, 11.36, 11.2, 10.48, 9.42, 9.04, 8.32, 8.18, 8.18, 8.18, 8.55, 8.55, 8.93, 9.3, 10.04, 10.04, 8.93, 8.6, 8.4, 8.54, 7.35, 7.42, 8.3, 8.55, 9.03, 10.55, 13.02, 15.12, 16.19, 11.8, 11.93, 14.19, 17.44, 18.63, 16.22, 13.49, 13.39, 13.29, 13.07, 12.92, 13.29, 13.31, 13.38, 13.41, 12.96, 12.42, 11.62, 7.78, 7.78, 10.12, 11.6, 10.47, 12.91, 12.91, 13.19, 12.94, 13.44, 13.5, 13.99, 13.67, 13.77, 13.39, 13.38, 12.65, 12.65, 13.13, 13.13, 12.74, 12.95, 13.59, 13.59, 13.99, 13.99, 14.53, 13.99, 14.07, 13.68, 14.11, 14.13, 14.23, 14.51, 14.51, 14.99, 14.51, 14.51, 14.47, 14.47, 14.4, 13.96, 14.9, 14.56, 15.09, 15.09, 15.53, 14.23, 11.84, 9.54, 10.45, 11.11, 11.2, 11.31, 10.48, 10.12, 9.4, 9.27, 8.49, 8.49, 8.3, 8.67, 8.32, 9.04, 9.3, 10.04, 10.04, 9.09, 8.6, 7.82, 7.76, 7.44, 7.44, 8.43, 8.43, 8.67, 10.16, 12.18, 13.37, 16.37, 16.87, 12.79, 14.61, 16.75, 16.94, 14.97, 14.13, 15.28, 14.24, 13.48, 13.57, 13.53, 13.28, 13.36, 12.96, 12.96, 12.04, 10.01, 7.51, 10.01, 11.2, 12.04, 11.6, 12.91, 12.91, 12.75, 13.23, 13.7, 13.55, 13.75, 13.35, 13.19, 12.74, 13.13, 13.13, 13.13, 13.13, 13.13, 13.19, 12.95, 13.43, 13.59, 14.11, 14.53, 14.53, 13.68, 13.68, 14.3, 14.11, 14.13, 14.51, 14.07, 14.07, 14.51, 14.51, 14.51, 14.51, 14.03, 14.4, 13.96, 14.03, 14.9, 14.56, 14.99, 14.99, 14.51, 11.88, 10.52, 11.76, 13.15, 12.79, 12.07, 11.69, 10.94, 10.18, 9.6, 9.2, 8.3, 8.3, 8.67, 9.05, 9.43, 9.04, 10.04, 10.04, 7.92, 8.54, 7.81, 7.81, 6.79, 7.44, 8.43, 8.42, 8.67, 9.2, 10.62, 10.59, 13.15, 17.64, 19.99, 16.48, 13.97, 12.62, 13.14, 14.64, 16.16, 16.16, 13.89, 13.15, 12.96, 12.85, 12.3, 12.27, 11.62, 10.01, 8.85, 10.01, 11.62, 11.45, 11.95, 12.04, 12.92, 12.92, 12.79, 13.25, 13.11, 13.32, 13.05, 12.99, 12.6, 12.74, 12.74, 12.74, 13.13, 13.13, 13.19, 13.19, 13.43, 13.43, 13.19, 14.11, 13.59, 13.59, 13.29, 13.68, 14.53, 14.99, 14.13, 14.07, 14.07, 14.07, 14.07, 14.51, 14.51, 14.51, 14.03, 14.03, 14.03, 13.59, 14.03, 14.47, 14.47, 14.9, 14.23, 12.47, 11.46, 12.51, 14.03, 13.74, 12.95, 12.56, 12.17, 11.2, 9.6, 8.63, 8.63, 8.3, 8.67, 9.05, 9.05, 9.43, 10.43, 10.18, 10.87, 8.18, 7.81, 7.81, 7.2, 8.15, 7.44, 8.06, 8.67, 8.43, 8.73, 9.08, 11.3, 15.38, 17.4, 19.52, 18.78, 15.36, 13.05, 15.09, 17.19, 16.79, 14.97, 12.14, 12.04, 10.12, 10.37, 12.04, 11.2, 8.85, 10.01, 11.62, 12.27, 11.91, 11.91, 11.91, 12.37, 12.37, 12.81, 12.68, 12.89, 12.63, 12.74, 12.99, 12.79, 12.36, 12.74, 12.74, 12.74, 13.19, 13.19, 13.62, 13.43, 13.43, 13.19, 13.19, 13.59, 13.29, 13.29, 13.59, 14.11, 14.56, 14.13, 13.8, 14.07, 13.63, 13.63, 13.63, 14.07, 14.03, 14.03, 13.59, 13.59, 13.15, 13.59, 14.03, 14.03, 14.23, 13.79, 12.47, 12.03, 13.01, 13.62, 14.03, 13.2, 12.79, 12.21, 10.99, 8.63, 8.24, 8.63, 8.63, 9.42, 9.42, 9.43, 9.43, 9.81, 10.18, 9.81, 8.55, 8.18, 7.21, 7.81, 7.81, 7.44, 8.06, 8.43, 7.06, 8.73, 7.97, 10.59, 12.46, 15.0, 19.28, 20.23, 19.93, 18.54, 19.04, 18.6, 17.72, 15.2, 11.5, 9.77, 5.8, 10.37, 12.04, 10.41, 10.41, 11.2, 12.27, 12.07, 9.66, 9.66, 9.66, 12.37, 12.37, 12.63, 12.46, 12.89, 12.89, 13.05, 12.93, 12.39, 12.79, 12.79, 13.19, 13.19, 13.19, 13.19, 13.62, 13.43, 13.43, 13.43, 13.19, 13.29, 13.29, 13.29, 14.11, 14.11, 14.11, 14.13, 13.7, 13.37, 13.63, 13.19, 13.19, 13.19, 13.59, 14.03, 13.15, 13.15, 13.19, 13.15, 13.15, 13.59, 13.59, 13.19, 11.88, 11.44, 12.51, 13.44, 13.02, 12.38, 11.55, 10.99, 10.17, 8.55, 8.24, 8.63, 8.63, 9.2, 9.2, 9.16, 9.43, 9.81, 10.18, 10.18, 10.04, 8.03, 7.56, 7.81, 7.56, 7.81, 8.43, 8.05, 7.06, 7.68, 9.0, 9.66, 10.63, 12.84, 16.22, 17.32, 18.65, 19.57, 20.25, 21.59, 20.09, 16.92, 12.89, 6.94, 9.17, 11.6, 11.6, 8.85, 10.41, 11.71, 12.52, 11.84, 5.4, 5.4, 5.4, 12.24, 12.24, 12.68, 12.46, 12.89, 12.89, 13.25, 12.93, 13.2, 12.79, 12.79, 13.19, 13.19, 13.19, 13.62, 13.62, 13.43, 13.43, 13.19, 13.19, 13.29, 13.29, 13.89, 14.11, 14.11, 14.11, 14.13, 13.7, 13.27, 13.19, 13.19, 13.19, 13.19, 13.15, 13.15, 13.15, 12.71, 13.19, 12.94, 12.85, 12.85, 12.85, 12.51, 11.21, 10.78, 11.34, 12.6, 12.6, 12.6, 11.14, 10.17, 9.36, 8.0, 8.05, 8.63, 8.82, 8.82, 9.2, 9.58, 9.43, 9.43, 9.81, 10.18, 9.52, 9.27, 8.18, 8.15, 7.44, 7.81, 7.81, 8.0, 6.64, 8.03, 9.67, 9.66, 10.29, 11.9, 12.87, 14.53, 14.74, 17.32, 21.75, 23.03, 21.1, 17.52, 15.36, -0.0, 9.17, 11.6, 8.85, 9.17, 12.07, 12.52, 11.84, 8.53, 1.16, 1.16, 1.16, 12.24, 12.24, 12.68, 12.68, 12.46, 12.89, 12.82, 12.79, 13.2, 13.2, 13.2, 13.2, 13.62, 13.62, 13.62, 13.62, 13.43, 13.43, 13.19, 13.19, 13.19, 13.89, 13.89, 14.11, 14.11, 14.11, 14.13, 13.7, 13.27, 13.63, 13.19, 12.75, 12.75, 12.71, 12.71, 12.71, 12.71, 12.71, 12.85, 12.42, 12.42, 12.42, 12.51, 11.21, 10.78, 11.34, 12.18, 12.18, 12.18, 11.34, 10.17, 8.95, 8.0, 8.4, 8.8, 8.43, 8.82, 9.2, 9.58, 9.16, 9.43, 9.43, 9.89, 9.42, 9.16, 8.55, 7.81, 7.2, 7.81, 7.81, 7.41, 8.03, 8.68, 9.3, 9.67, 10.28, 11.28, 11.9, 11.2, 13.24, 15.95, 19.43, 22.53, 20.38, 18.6, 17.88, 18.78, -0.0, 9.17, 9.17, 12.52, 12.52, 11.71, 9.66, 2.82, -0.0, -0.0, -0.0, 12.24, 12.24, 12.68, 12.68, 12.89, 12.89, 12.82, 13.15, 13.15, 13.02, 13.02, 13.02, 13.43, 13.62, 13.62, 13.62, 13.43, 13.43, 13.19, 13.19, 13.19, 14.11, 14.11, 14.11, 14.11, 14.56, 14.13, 13.7, 13.27, 13.27, 13.19, 12.75, 12.75, 12.27, 12.27, 12.27, 12.27, 12.27, 12.42, 12.42, 12.42, 12.42, 12.51, 11.56, 10.7, 11.21, 11.76, 12.08, 11.76, 10.92, 9.77, 8.8, 8.0, 8.4, 8.8, 8.43, 8.82, 9.2, 9.58, 9.58, 8.79, 9.16, 9.52, 9.42, 9.08, 8.55, 8.0, 6.98, 7.56, 7.27, 7.35, 8.03, 8.68, 9.04, 9.67, 10.04, 10.66, 11.28, 10.92, 10.51, 13.58, 17.65, 20.74, 20.94, 19.9, 16.44, -12.96, -0.0, 9.17, 12.07, 11.87, 11.2, 9.66, 5.2, -0.0, -1.6, -1.6, -1.6, 12.24, 12.24, 12.68, 12.68, 12.68, 12.89, 13.25, 13.15, 13.15, 12.62, 13.02, 13.02, 13.02, 13.43, 13.62, 13.62, 13.43, 13.43, 13.19, 12.79, 13.28, 13.7, 14.11, 14.11, 14.11, 14.56, 14.13, 13.7, 13.27, 13.27, 13.15, 13.19, 12.75, 12.27, 12.27, 11.84, 11.84, 12.27, 11.99, 11.99, 11.99, 11.99, 11.99, 11.56, 10.7, 11.56, 12.08, 12.08, 11.34, 10.17, 9.6, 9.2, 8.4, 8.0, 8.4, 8.18, 8.82, 8.82, 9.2, 9.2, 8.79, 8.79, 9.52, 9.53, 9.17, 8.93, 7.81, 6.64, 7.56, 7.4, 8.12, 8.03, 8.38, 9.04, 9.0, 9.66, 9.62, 10.24, 10.51, 10.51, 11.17, 15.7, 17.75, 19.71, 21.17, 11.2, -17.19, -0.0, 12.52, 12.07, 11.45, 9.3, 8.22, 1.23, -1.6, -2.39, -2.39, -2.39, 12.24, 12.24, 12.68, 12.68, 12.68, 13.07, 13.25, 13.15, 12.79, 13.02, 13.02, 13.02, 13.43, 13.43, 13.62, 13.62, 13.43, 13.43, 13.86, 13.7, 13.7, 13.7, 14.11, 14.11, 14.11, 14.13, 14.13, 13.7, 13.27, 12.85, 13.15, 13.15, 12.75, 12.27, 12.27, 11.84, 11.84, 11.84, 11.56, 11.99, 11.99, 11.99, 11.99, 11.56, 11.13, 11.99, 12.51, 11.76, 10.92, 9.6, 9.2, 8.8, 8.8, 8.4, 7.81, 8.6, 8.8, 9.2, 8.55, 8.93, 8.93, 8.79, 8.82, 9.53, 8.75, 8.15, 7.87, 7.06, 7.87, 7.41, 7.76, 6.95, 8.03, 8.31, 9.0, 8.93, 9.26, 9.56, 9.8, 9.8, 10.22, 12.19, 15.82, 17.79, 20.94, 19.28, -0.0, 9.17, 11.99, 11.6, 10.8, 9.66, 6.44, -1.17, -3.14, -3.14, -3.14, -3.14, 12.24, 12.39, 12.68, 12.68, 12.68, 13.07, 13.15, 13.15, 12.79, 13.2, 13.02, 13.02, 13.43, 13.43, 13.99, 13.99, 13.86, 13.86, 13.86, 13.7, 13.7, 13.7, 14.11, 14.11, 13.7, 13.7, 14.13, 13.7, 13.27, 13.27, 12.85, 13.15, 12.71, 12.27, 12.27, 11.84, 11.84, 11.84, 11.56, 11.56, 11.56, 11.56, 11.56, 11.56, 11.56, 11.99, 12.51, 11.76, 10.79, 9.6, 9.55, 9.13, 8.8, 7.82, 8.21, 8.21, 8.6, 8.6, 8.6, 8.55, 8.55, 8.55, 8.47, 9.17, 9.08, 8.82, 7.81, 7.4, 7.74, 6.95, 6.95, 6.95, 7.06, 7.59, 8.31, 8.93, 8.85, 8.85, 9.56, 9.89, 9.89, 9.48, 11.91, 15.8, 23.55, 12.89, -0.0, 8.85, 10.73, 10.82, 10.82, 9.48, 1.9, -3.12, -4.24, -4.1, -4.1, -4.1, 12.39, 12.39, 12.24, 12.68, 12.63, 12.63, 12.72, 13.15, 13.15, 13.2, 13.2, 13.43, 13.86, 13.99, 13.99, 13.99, 13.86, 13.86, 13.86, 13.86, 13.7, 13.7, 13.7, 13.7, 13.7, 13.7, 14.13, 13.7, 13.27, 13.27, 13.15, 13.15, 12.71, 12.71, 12.27, 11.84, 11.84, 11.03, 11.03, 11.13, 11.56, 11.56, 11.45, 11.03, 11.56, 11.99, 12.42, 11.62, 11.21, 10.38, 9.55, 8.99, 8.99, 7.82, 8.21, 8.21, 8.21, 8.6, 8.6, 8.6, 8.55, 8.55, 8.47, 8.41, 9.08, 9.3, 8.15, 7.27, 6.77, 6.83, 7.27, 7.27, 6.95, 6.95, 7.59, 8.22, 8.53, 8.93, 8.93, 9.26, 9.59, 9.59, 10.73, 15.23, 27.23, 19.41, 13.02, 8.53, 11.2, 12.27, 13.19, 10.12, -0.0, -4.08, -4.98, -4.24, -4.24, -4.24, 12.37, 12.37, 12.2, 12.63, 12.63, 12.39, 12.72, 13.15, 13.15, 13.2, 13.2, 13.62, 13.99, 13.99, 13.99, 13.86, 13.86, 13.86, 13.86, 13.86, 13.7, 13.7, 13.7, 13.7, 13.7, 13.7, 13.7, 13.7, 13.27, 12.85, 13.15, 12.71, 12.71, 12.71, 12.27, 11.84, 11.84, 11.03, 11.03, 11.03, 11.13, 11.03, 11.03, 11.03, 11.13, 11.13, 11.21, 11.21, 11.21, 10.38, 10.28, 9.4, 8.99, 8.58, 7.82, 7.82, 8.21, 8.21, 8.21, 8.18, 8.18, 8.23, 7.74, 8.41, 9.3, 9.66, 9.27, 7.9, 7.27, 6.95, 7.35, 7.27, 7.27, 7.13, 7.27, 7.48, 8.22, 8.6, 8.31, 8.64, 8.53, 9.26, 11.44, 23.24, 28.21, 20.12, 16.99, 12.96, 12.96, 13.59, 13.19, 9.44, 1.47, -4.21, -5.15, -4.38, -4.38, -4.38, 12.2, 12.2, 12.2, 12.2, 12.63, 12.39, 12.72, 12.72, 13.15, 13.15, 13.57, 13.57, 13.99, 13.86, 13.86, 13.86, 13.86, 13.86, 13.86, 14.28, 13.7, 13.7, 13.7, 13.7, 13.7, 13.28, 13.7, 13.7, 13.27, 12.85, 13.15, 12.71, 12.71, 12.27, 12.27, 11.84, 11.78, 11.03, 11.03, 10.6, 11.03, 11.03, 11.35, 11.35, 10.7, 10.6, 11.03, 11.03, 11.13, 10.7, 10.18, 9.75, 8.8, 8.99, 8.21, 7.82, 7.82, 7.82, 8.21, 7.81, 7.51, 7.87, 7.74, 8.07, 8.94, 9.3, 9.16, 7.9, 7.81, 7.4, 7.4, 7.68, 7.59, 7.59, 7.9, 7.9, 7.48, 8.22, 7.9, 7.59, 7.48, 9.26, 18.05, 21.3, 27.53, 20.16, 16.99, 12.39, 13.41, 12.87, 11.33, 8.18, 2.64, -3.22, -5.31, -4.81, -4.81, -4.81, 12.2, 12.2, 12.2, 12.2, 11.96, 12.3, 12.72, 13.15, 12.79, 12.79, 12.79, 13.2, 13.86, 13.86, 13.86, 13.86, 13.86, 13.86, 13.86, 14.11, 14.11, 13.7, 13.7, 13.7, 13.28, 13.28, 13.7, 13.27, 13.27, 13.15, 13.15, 12.71, 12.71, 12.27, 12.27, 11.84, 11.78, 11.35, 11.35, 10.91, 10.91, 11.35, 11.35, 10.91, 10.6, 10.18, 10.18, 10.18, 10.18, 10.18, 10.18, 9.2, 8.8, 8.34, 8.6, 8.21, 7.82, 7.82, 7.82, 7.81, 7.51, 7.51, 7.87, 8.23, 8.94, 9.3, 8.82, 7.9, 7.59, 7.47, 7.87, 7.74, 7.68, 7.59, 7.59, 6.83, 7.48, 7.48, 7.48, 7.48, 7.78, 8.53, 16.01, 21.37, 26.43, 20.55, 15.65, 13.01, 11.88, 10.12, 9.71, 8.68, 4.81, -2.24, -5.63, -5.31, -5.31, -5.31, 12.2, 12.2, 12.2, 11.96, 11.87, 11.87, 12.3, 12.72, 12.38, 12.38, 12.79, 13.02, 13.02, 13.43, 13.43, 13.43, 13.43, 13.43, 13.19, 13.59, 14.11, 14.11, 14.11, 13.7, 13.28, 13.28, 13.7, 13.27, 13.27, 13.15, 12.71, 12.71, 12.27, 12.27, 12.27, 11.78, 11.78, 11.35, 10.91, 10.91, 10.91, 10.91, 10.91, 10.91, 10.47, 10.47, 10.47, 10.47, 9.75, 9.75, 9.4, 9.2, 8.72, 8.34, 8.6, 8.21, 8.21, 7.82, 7.58, 7.58, 7.96, 7.96, 7.87, 8.23, 8.58, 8.94, 8.49, 7.9, 7.74, 8.34, 8.23, 7.74, 7.59, 8.35, 8.35, 7.27, 6.48, 6.83, 7.59, 7.59, 7.9, 10.38, 13.23, 20.47, 25.19, 29.89, 15.54, 10.79, 10.36, 10.97, 10.22, 9.12, 7.42, -0.0, -6.18, -5.63, -5.63, -5.63, 11.96, 11.96, 11.96, 11.87, 12.3, 12.3, 12.3, 11.97, 12.38, 12.38, 12.62, 13.02, 13.02, 13.43, 13.43, 13.43, 13.43, 13.19, 13.19, 13.19, 13.59, 13.59, 14.11, 13.7, 13.28, 13.28, 13.7, 13.27, 12.85, 13.15, 12.71, 12.27, 12.27, 12.27, 11.78, 11.78, 11.78, 11.35, 11.35, 10.91, 10.91, 11.11, 11.11, 11.11, 10.47, 10.47, 10.47, 9.75, 9.75, 9.4, 9.2, 8.72, 8.23, 8.34, 8.6, 8.6, 8.21, 7.82, 7.58, 7.58, 7.58, 7.96, 8.34, 8.72, 8.72, 8.58, 8.58, 8.15, 8.23, 8.37, 7.81, 7.59, 8.07, 7.9, 7.59, 7.27, 6.95, 6.95, 7.27, 8.02, 9.16, 10.18, 12.6, 17.2, 23.07, 29.26, 25.12, 14.09, 12.13, 12.5, 11.25, 9.73, 9.39, 1.42, -5.3, -6.18, -6.18, -6.18, 11.96, 11.96, 11.96, 11.87, 12.3, 11.97, 11.97, 12.38, 12.21, 12.21, 12.62, 12.62, 13.02, 13.43, 13.43, 13.43, 13.19, 13.19, 13.19, 13.59, 13.59, 13.59, 14.11, 13.7, 13.28, 13.7, 13.27, 13.15, 12.72, 12.66, 12.66, 12.22, 12.22, 11.78, 11.78, 11.78, 11.35, 11.35, 11.35, 11.11, 11.11, 11.11, 11.11, 10.66, 10.66, 10.47, 10.47, 9.63, 9.75, 9.2, 8.72, 8.34, 8.72, 8.6, 8.6, 8.6, 8.21, 8.21, 8.0, 7.6, 8.0, 8.0, 8.4, 8.34, 8.34, 8.34, 8.23, 8.37, 8.72, 8.24, 8.15, 8.15, 8.58, 8.41, 8.07, 7.74, 7.4, 7.51, 7.4, 9.2, 10.0, 10.73, 12.93, 16.48, 21.18, 23.45, 23.09, 19.02, 13.58, 13.33, 12.11, 10.22, 10.52, 5.81, -4.81, -6.18, -6.18, -6.18, 11.68, 11.68, 11.68, 11.55, 11.97, 11.97, 11.8, 12.21, 12.21, 12.21, 12.62, 12.62, 13.02, 13.02, 13.43, 12.79, 12.79, 13.19, 13.19, 13.19, 13.59, 13.59, 14.11, 14.11, 13.28, 13.27, 13.15, 13.15, 12.72, 12.66, 12.66, 12.22, 12.22, 11.78, 11.78, 11.78, 11.78, 11.35, 11.55, 11.11, 11.18, 11.18, 10.73, 10.65, 10.66, 10.66, 10.04, 9.63, 9.63, 9.2, 9.2, 8.34, 8.34, 8.6, 8.6, 8.21, 8.21, 8.58, 8.58, 8.0, 7.6, 7.6, 8.0, 8.0, 8.4, 8.4, 8.34, 8.8, 8.8, 8.34, 8.6, 9.6, 9.1, 8.23, 8.23, 8.55, 8.55, 8.6, 8.99, 9.6, 10.5, 11.03, 12.82, 16.05, 19.81, 21.2, 21.17, 19.04, 18.08, 14.29, 11.96, 11.06, 11.58, 8.93, -4.12, -7.42, -7.42, -7.42, 11.68, 11.68, 11.68, 11.55, 11.55, 11.97, 11.8, 11.8, 12.21, 12.21, 12.62, 12.62, 13.02, 13.02, 13.02, 12.79, 12.79, 12.79, 13.19, 13.19, 13.19, 13.59, 14.11, 13.7, 13.7, 13.27, 13.15, 12.72, 12.72, 12.66, 12.66, 12.22, 11.78, 11.78, 11.78, 11.78, 11.78, 11.55, 11.55, 11.62, 11.18, 11.18, 11.18, 10.73, 10.66, 10.66, 10.22, 9.97, 9.97, 9.63, 8.8, 8.8, 8.6, 8.6, 8.6, 8.21, 8.58, 8.17, 8.58, 8.17, 8.17, 7.6, 7.6, 8.0, 8.0, 8.4, 8.4, 8.4, 8.4, 8.8, 8.8, 9.7, 9.7, 10.0, 8.8, 8.99, 8.99, 8.99, 9.55, 9.96, 10.5, 11.45, 12.82, 15.27, 19.08, 20.25, 18.63, 18.26, 16.53, 15.18, 12.29, 12.24, 13.23, 10.99, -2.96, -7.0, -7.0, -7.0, 11.68, 11.68, 11.97, 11.97, 11.97, 11.97, 11.8, 11.8, 11.8, 12.21, 12.21, 12.62, 13.02, 13.02, 13.02, 12.79, 12.79, 12.79, 12.79, 13.19, 13.19, 13.7, 13.7, 13.7, 13.7, 13.27, 13.27, 12.72, 12.72, 12.66, 12.66, 12.22, 11.78, 11.78, 11.78, 11.35, 11.55, 11.55, 11.62, 11.18, 11.18, 11.18, 11.18, 10.73, 10.73, 10.73, 10.66, 10.22, 9.97, 9.97, 8.8, 8.8, 8.99, 8.6, 8.4, 8.4, 8.72, 8.17, 8.17, 8.17, 8.17, 7.76, 7.95, 7.95, 8.37, 8.37, 8.37, 8.79, 8.79, 8.79, 9.21, 8.99, 8.99, 11.18, 9.75, 9.4, 9.4, 9.2, 9.2, 9.96, 10.17, 11.03, 12.1, 14.11, 17.77, 19.01, 18.14, 17.13, 16.37, 15.18, 13.26, 13.26, 14.47, 13.41, -1.65, -7.88, -7.88, -7.88, 11.68, 11.68, 11.97, 11.97, 11.97, 11.97, 11.8, 11.8, 11.8, 12.21, 12.21, 12.62, 13.02, 13.02, 13.02, 12.79, 12.79, 12.79, 12.79, 13.19, 13.19, 13.7, 13.7, 13.7, 13.7, 13.27, 13.27, 12.72, 12.72, 12.66, 12.66, 12.22, 11.78, 11.78, 11.78, 11.35, 11.55, 11.55, 11.62, 11.18, 11.18, 11.18, 11.18, 10.73, 10.73, 10.73, 10.66, 10.22, 9.97, 9.97, 8.8, 8.8, 8.99, 8.6, 8.4, 8.4, 8.72, 8.17, 8.17, 8.17, 8.17, 7.76, 7.95, 7.95, 8.37, 8.37, 8.37, 8.79, 8.79, 8.79, 9.21, 8.99, 8.99, 11.18, 9.75, 9.4, 9.2, 9.2, 9.2, 9.96, 10.17, 10.32, 11.27, 13.15, 15.19, 17.14, 17.11, 16.37, 15.94, 15.38, 13.84, 14.1, 15.99, 14.3, -1.83, -8.4, -8.4, -8.4]}, {"header": {"dx": 0.06612293990616946, "dy": 0.0552356325346848, "nx": 98, "ny": 59, "la1": 35.046912555036876, "la2": 31.78801023549047, "lo1": -121.43107172385933, "lo2": -114.95102361305473, "refTime": "2026041222", "parameterCategory": 1, "parameterNumber": 3}, "data": [5.18, 5.18, 7.82, 8.18, 9.06, 9.22, 9.87, 9.87, 9.87, 10.97, 10.3, 7.78, 7.68, 6.86, 6.31, 6.59, 6.59, 6.59, 7.27, 7.27, 7.56, 7.56, 7.13, 7.59, 7.59, 7.9, 8.22, 8.22, 8.53, 7.36, 7.48, 7.48, 7.48, 7.27, 3.32, -9.11, -9.55, -6.98, -4.87, -4.46, -3.8, -4.4, 0.0, 7.78, 10.12, 11.58, 13.82, 15.28, 15.72, 13.39, 12.89, 12.89, 12.26, 12.26, 11.87, 11.14, 11.06, 10.18, 9.6, 9.11, 8.84, 8.05, 7.38, 7.78, 8.21, 8.49, 9.73, 11.83, 12.98, 13.26, 12.22, 10.65, 9.66, 8.03, 7.2, 5.67, 4.76, 3.94, 0.0, -6.44, -3.61, -1.18, 8.93, 12.07, 13.41, 13.23, 12.8, 12.45, 12.15, 11.79, 11.93, 12.48, 12.2, 12.1, 11.2, 10.79, 10.94, 11.99, 3.47, 5.18, 5.99, 8.18, 8.46, 9.22, 10.17, 10.17, 10.43, 10.97, 9.97, 9.17, 7.65, 7.13, 6.76, 6.5, 6.31, 6.76, 6.5, 6.83, 7.85, 7.85, 9.16, 8.22, 8.07, 8.02, 7.59, 7.9, 7.48, 7.48, 8.64, 9.76, 9.4, 8.31, 5.03, -8.49, -8.05, -7.2, -6.63, -6.32, -5.46, 0.0, 7.78, 10.69, 13.23, 14.17, 16.01, 15.28, 14.13, 12.27, 12.65, 12.26, 12.26, 11.17, 11.15, 10.75, 9.89, 9.89, 9.11, 9.11, 8.31, 7.25, 7.78, 8.67, 8.67, 10.43, 11.94, 12.62, 12.89, 12.57, 12.12, 10.05, 9.12, 8.16, 6.66, 5.79, 5.55, 3.94, 0.0, -6.44, -3.61, -1.18, 8.93, 12.07, 13.41, 13.23, 12.8, 12.45, 12.15, 11.79, 11.93, 12.48, 12.2, 12.1, 11.2, 10.79, 10.94, 11.99, 3.1, 4.66, 5.99, 7.16, 8.46, 9.22, 10.17, 10.17, 10.75, 10.63, 9.3, 7.64, 7.72, 7.14, 6.15, 6.59, 6.86, 6.86, 6.86, 8.15, 7.42, 8.22, 8.82, 9.16, 9.5, 7.68, 7.68, 7.68, 7.68, 8.38, 10.18, 10.81, 10.43, 10.24, 5.49, 0.0, -8.05, -8.77, -8.4, -5.7, 4.32, 10.43, 13.39, 15.23, 16.17, 16.54, 15.94, 14.91, 11.64, 12.27, 11.9, 11.6, 11.25, 10.51, 10.12, 9.89, 9.89, 9.49, 9.11, 8.84, 8.31, 8.3, 9.17, 10.38, 11.8, 12.05, 13.02, 12.89, 12.87, 11.79, 11.25, 10.05, 8.29, 7.93, 7.32, 6.4, 5.67, 4.89, -5.15, -9.48, -4.58, 0.0, 10.6, 12.96, 13.34, 13.09, 12.22, 12.45, 12.56, 11.92, 13.25, 14.11, 12.94, 12.38, 11.2, 10.79, 10.79, 11.99, 1.58, 3.1, 5.99, 6.6, 8.46, 9.22, 10.17, 10.17, 10.43, 10.3, 8.53, 7.59, 7.41, 6.98, 6.86, 6.86, 7.14, 7.95, 7.41, 7.42, 8.35, 8.24, 8.59, 8.69, 8.73, 9.16, 7.68, 7.4, 7.51, 9.2, 10.17, 10.4, 10.04, 10.24, 8.8, 8.4, 6.95, 0.0, 0.0, 8.38, 13.8, 16.53, 16.69, 15.07, 14.33, 13.11, 12.05, 10.98, 11.28, 10.92, 10.52, 10.58, 10.22, 9.8, 9.7, 8.84, 9.11, 9.11, 8.84, 8.31, 8.18, 9.17, 11.09, 12.5, 13.03, 12.89, 13.27, 13.02, 12.42, 11.06, 11.06, 10.77, 10.05, 7.69, 6.6, 5.86, 5.8, 6.42, -3.07, -8.05, -5.2, 5.4, 11.33, 14.22, 14.11, 13.72, 13.39, 12.98, 12.56, 12.03, 13.78, 13.86, 12.6, 11.8, 11.2, 10.79, 11.16, 11.81, 1.58, 3.1, 5.48, 7.59, 8.46, 9.22, 10.17, 10.17, 9.87, 9.8, 8.53, 7.59, 7.65, 6.71, 6.59, 7.14, 7.72, 7.95, 8.53, 9.53, 10.19, 9.09, 8.73, 9.46, 8.47, 9.09, 9.09, 9.3, 10.27, 9.13, 9.2, 8.82, 9.97, 9.97, 9.7, 9.7, 9.3, 9.17, 11.06, 16.09, 17.67, 15.35, 12.94, 11.03, 10.63, 10.63, 10.24, 10.58, 10.58, 10.22, 9.89, 9.59, 9.48, 8.95, 8.84, 8.84, 8.84, 8.84, 8.84, 8.45, 9.17, 10.73, 12.94, 13.42, 13.64, 13.49, 13.27, 13.26, 12.84, 11.76, 12.01, 12.51, 11.8, 9.95, 7.36, 5.68, 5.93, 5.6, 4.52, -7.13, -2.28, 9.82, 13.49, 14.84, 14.21, 14.33, 14.05, 12.79, 12.23, 13.16, 12.5, 11.53, 11.38, 11.6, 10.79, 10.66, 11.03, 11.42, 1.58, 3.1, 5.81, 7.59, 8.46, 9.22, 10.17, 9.87, 9.87, 9.8, 8.53, 7.27, 6.71, 6.44, 6.71, 7.36, 8.22, 9.08, 9.53, 10.73, 10.73, 10.18, 11.37, 10.55, 9.82, 10.04, 9.67, 10.0, 10.27, 10.27, 7.96, 7.51, 7.47, 10.24, 11.16, 11.5, 10.23, 9.21, 13.03, 17.09, 15.02, 12.79, 11.64, 11.28, 10.98, 11.25, 10.51, 9.8, 9.48, 9.17, 8.93, 9.59, 9.36, 8.95, 8.84, 8.84, 8.84, 9.24, 9.24, 9.06, 10.03, 12.6, 13.81, 13.83, 14.46, 13.89, 12.89, 12.26, 12.16, 12.09, 10.65, 11.06, 11.45, 11.1, 9.66, 8.2, 6.53, 5.6, 4.48, 0.0, 8.53, 11.61, 15.56, 15.35, 14.42, 14.05, 13.75, 12.65, 12.73, 12.05, 11.34, 10.98, 11.03, 11.04, 11.03, 11.03, 11.03, 11.42, 1.58, 3.1, 5.81, 7.59, 8.46, 9.22, 9.22, 9.22, 8.94, 9.21, 8.02, 6.53, 6.44, 6.44, 8.53, 7.9, 9.08, 9.42, 10.41, 10.73, 11.12, 12.27, 12.27, 13.02, 12.37, 12.27, 12.65, 13.15, 11.6, 8.73, 8.38, 7.21, 8.54, 8.54, 10.16, 11.88, 11.29, 9.8, 10.65, 12.45, 13.39, 11.85, 12.39, 12.27, 12.45, 11.2, 11.47, 10.01, 9.17, 8.85, 9.42, 9.17, 9.36, 8.95, 8.95, 8.95, 8.95, 8.66, 9.06, 9.59, 11.2, 13.15, 14.47, 14.39, 14.46, 13.89, 12.57, 11.95, 11.2, 10.65, 9.89, 8.83, 8.53, 8.74, 7.99, 8.43, 6.18, 5.18, 8.53, 10.63, 11.27, 15.35, 15.66, 15.24, 14.3, 13.19, 12.65, 12.73, 12.4, 10.65, 10.18, 10.82, 11.64, 11.28, 10.63, 10.66, 10.73, 11.42, 1.53, 3.1, 5.81, 6.4, 8.46, 8.46, 9.22, 9.22, 8.94, 8.91, 7.42, 6.95, 6.69, 8.49, 9.62, 8.94, 9.53, 10.23, 11.12, 11.99, 11.72, 10.73, 10.18, 12.52, 12.16, 10.75, 12.22, 14.39, 11.52, 8.38, 9.66, 11.21, 11.87, 11.87, 9.77, 10.41, 9.76, 7.36, 8.22, 10.09, 12.14, 12.39, 13.65, 14.13, 12.7, 10.97, 10.43, 10.01, 9.48, 9.48, 7.78, 8.76, 8.95, 8.95, 8.45, 8.18, 8.3, 8.3, 8.42, 10.12, 11.77, 13.39, 14.05, 14.39, 13.87, 12.87, 11.79, 11.06, 10.27, 8.57, 7.59, 6.43, 5.64, 5.81, 6.45, 5.79, 6.18, 9.8, 11.02, 14.71, 15.05, 15.34, 14.88, 13.93, 12.97, 12.01, 11.54, 10.87, 10.22, 9.89, 9.53, 10.19, 11.28, 11.28, 11.03, 10.73, 11.16, 11.42, 1.53, 3.1, 5.81, 6.95, 7.59, 8.46, 8.46, 8.46, 8.2, 7.96, 7.65, 8.22, 10.12, 10.55, 9.5, 9.5, 10.37, 11.72, 11.99, 12.25, 11.99, 11.16, 11.28, 11.64, 9.84, 8.73, 7.87, 11.09, 11.06, 10.12, 11.88, 14.11, 14.42, 12.39, 10.01, 8.82, 6.98, 7.9, 7.9, 8.24, 10.99, 12.51, 11.8, 10.01, 9.48, 9.17, 10.43, 10.43, 10.12, 9.8, 9.48, 9.17, 8.95, 8.95, 8.18, 8.01, 8.12, 8.53, 8.64, 11.77, 12.93, 13.39, 13.52, 13.83, 12.89, 11.14, 10.76, 9.94, 8.46, 6.24, 4.66, 4.4, 3.92, 4.4, 4.04, 5.63, 9.87, 13.19, 14.3, 15.05, 15.5, 15.14, 14.62, 13.65, 12.42, 10.82, 10.18, 9.17, 8.85, 8.85, 9.2, 9.92, 10.53, 11.39, 11.39, 11.53, 11.53, 11.42, 2.72, 4.38, 5.81, 6.95, 7.59, 8.46, 8.46, 8.46, 8.2, 7.96, 8.24, 9.17, 8.53, 9.48, 9.8, 9.48, 11.64, 13.19, 13.19, 11.99, 10.12, 10.12, 11.53, 11.17, 11.17, 8.22, 6.64, 8.58, 10.43, 11.17, 11.8, 13.23, 13.42, 10.82, 8.53, 6.98, 6.7, 6.64, 8.93, 9.84, 10.12, 9.64, 8.64, 7.78, 7.78, 8.12, 8.01, 7.9, 8.66, 9.48, 9.8, 10.12, 9.4, 9.06, 8.3, 8.42, 8.22, 8.69, 9.97, 12.38, 13.57, 14.33, 14.61, 13.27, 12.22, 10.34, 9.52, 8.11, 5.73, 4.66, 3.81, 3.68, 3.93, 3.8, 3.69, 8.41, 13.38, 14.05, 14.39, 14.57, 15.01, 14.39, 14.3, 13.41, 11.8, 10.52, 9.17, 8.46, 8.16, 8.16, 8.9, 9.92, 10.79, 11.16, 11.09, 11.8, 11.8, 11.64, 3.01, 4.38, 5.81, 7.16, 8.18, 7.59, 7.59, 7.59, 8.78, 8.23, 8.54, 9.13, 9.02, 9.02, 9.16, 10.12, 12.02, 13.02, 11.77, 12.01, 11.16, 11.16, 12.01, 9.44, 9.22, 9.17, 7.27, 8.82, 10.37, 9.8, 6.67, 8.3, 8.53, 7.9, 6.71, 6.7, 7.44, 8.22, 9.02, 9.8, 10.12, 9.48, 8.22, 7.56, 7.27, 7.18, 6.57, 7.08, 7.48, 8.53, 11.6, 12.16, 12.16, 11.54, 11.6, 12.05, 12.16, 11.16, 11.45, 13.55, 16.0, 15.94, 14.39, 13.87, 13.23, 12.33, 9.92, 8.74, 6.56, 3.41, 4.65, 5.36, 5.5, 3.22, 5.73, 11.97, 13.33, 14.71, 14.85, 14.88, 13.76, 12.7, 11.31, 11.74, 10.43, 9.48, 8.49, 8.16, 8.22, 8.27, 9.3, 10.56, 10.81, 11.2, 11.16, 11.42, 11.64, 11.28, 3.01, 4.38, 5.81, 7.16, 8.18, 7.59, 7.59, 7.59, 7.93, 7.44, 8.05, 8.31, 9.6, 9.31, 8.73, 8.15, 8.24, 9.71, 9.66, 9.0, 8.77, 8.53, 8.29, 8.28, 6.9, 8.1, 7.82, 5.69, 6.2, 5.29, 4.8, 6.16, 6.16, 5.21, 5.21, 4.99, 5.9, 7.41, 8.32, 8.91, 9.21, 8.91, 8.02, 7.15, 6.58, 6.24, 7.9, 8.82, 9.3, 9.3, 11.5, 13.51, 14.88, 16.39, 16.16, 15.19, 14.46, 13.34, 12.96, 14.27, 17.13, 16.85, 14.79, 13.27, 13.89, 15.09, 15.66, 14.0, 12.69, 11.64, 10.02, 8.58, 4.43, 4.1, 10.37, 12.74, 14.3, 14.46, 14.02, 13.11, 12.33, 11.56, 10.47, 10.65, 9.43, 8.79, 7.44, 7.82, 7.9, 9.0, 9.76, 10.18, 10.43, 10.43, 10.66, 10.66, 11.28, 11.66, 3.01, 4.38, 5.81, 7.16, 7.16, 7.16, 7.16, 7.93, 7.93, 7.69, 8.31, 8.58, 8.85, 9.89, 10.18, 9.12, 8.58, 8.05, 6.87, 7.11, 7.11, 6.0, 4.24, 4.24, 4.24, 5.45, 5.45, 5.45, 4.48, 2.83, 3.39, 4.72, 4.72, 4.54, 4.18, 3.99, 5.29, 6.2, 7.14, 7.41, 7.68, 7.68, 7.41, 6.77, 6.95, 7.56, 9.1, 10.55, 10.55, 10.16, 10.09, 10.73, 12.54, 14.68, 16.0, 16.02, 15.91, 13.95, 11.55, 12.68, 16.07, 15.66, 13.49, 12.62, 15.37, 15.86, 18.23, 21.07, 17.82, 20.46, 17.85, 12.64, 8.43, 10.19, 12.52, 15.29, 15.24, 14.61, 12.74, 11.7, 9.95, 9.39, 8.94, 8.31, 9.24, 9.16, 9.06, 8.85, 7.59, 8.31, 8.79, 9.42, 10.15, 10.04, 10.66, 10.66, 11.28, 11.88, 3.01, 4.38, 5.63, 5.81, 7.16, 6.95, 6.95, 6.95, 6.95, 6.95, 8.58, 8.58, 8.85, 9.89, 9.66, 9.66, 9.66, 9.12, 7.82, 7.58, 5.81, 5.81, 4.66, 4.95, 3.39, 3.39, 3.1, 3.1, 1.38, 1.29, 1.05, 1.28, 1.71, 3.39, 3.25, 3.99, 4.56, 6.17, 6.17, 5.95, 6.45, 6.71, 6.2, 7.9, 6.95, 7.56, 8.43, 9.48, 9.48, 10.16, 9.48, 10.4, 12.72, 13.15, 11.85, 10.28, 11.03, 13.74, 13.19, 12.07, 13.86, 13.99, 12.95, 13.84, 14.33, 13.75, 15.84, 17.69, 18.97, 16.01, 16.22, 12.45, 12.81, 11.45, 13.92, 15.24, 14.97, 13.79, 12.33, 10.54, 9.11, 7.49, 6.9, 7.36, 7.93, 8.95, 9.62, 9.8, 8.31, 8.02, 8.06, 9.2, 10.0, 10.66, 10.15, 11.03, 11.66, 12.27, 3.01, 3.36, 4.87, 5.81, 5.81, 5.81, 6.95, 6.95, 6.95, 7.58, 8.58, 8.85, 8.85, 9.12, 9.66, 9.92, 9.92, 8.77, 8.53, 7.6, 6.17, 6.17, 4.95, 5.09, 3.49, 1.83, 1.78, 0.0, 0.0, 0.0, 0.0, 0.0, 0.0, 1.76, 3.25, 4.4, 5.7, 5.63, 6.2, 5.45, 5.69, 6.45, 5.95, 6.7, 6.64, 7.56, 8.0, 8.37, 8.73, 8.73, 8.15, 8.37, 7.56, 6.63, 6.98, 7.81, 7.27, 10.86, 13.93, 13.88, 11.84, 11.21, 11.6, 12.6, 12.62, 13.02, 14.61, 13.76, 12.57, 13.64, 13.17, 14.17, 13.43, 13.15, 14.22, 14.24, 13.79, 12.2, 10.99, 9.66, 8.43, 6.88, 5.89, 6.21, 7.73, 9.36, 9.8, 9.48, 8.97, 9.02, 9.58, 9.74, 10.48, 10.19, 10.66, 12.23, 12.27, 12.27, 3.01, 3.36, 4.87, 4.52, 5.81, 5.81, 5.81, 5.81, 6.95, 7.58, 8.85, 8.85, 9.71, 10.01, 9.39, 9.66, 8.03, 8.25, 9.0, 8.03, 6.54, 6.54, 4.62, 3.24, 1.65, 0.0, 0.0, 0.0, 0.0, -1.51, -1.51, 0.0, 0.0, 1.91, 3.25, 4.74, 5.9, 5.21, 6.2, 4.8, 5.45, 5.69, 5.95, 6.95, 6.95, 7.56, 8.18, 7.56, 7.9, 6.95, 7.27, 7.27, 6.95, 6.32, 6.63, 6.63, 7.44, 9.86, 11.99, 11.12, 10.55, 9.77, 9.77, 9.77, 9.48, 10.55, 10.01, 9.8, 11.06, 13.29, 12.02, 12.39, 16.57, 15.29, 14.26, 13.79, 12.36, 10.73, 8.77, 8.11, 7.57, 7.2, 7.43, 8.21, 8.22, 8.22, 9.17, 9.48, 9.97, 10.48, 10.66, 10.53, 10.79, 11.16, 11.12, 11.69, 11.75, 11.75, 3.01, 3.36, 5.02, 4.38, 4.38, 5.81, 5.81, 5.99, 7.58, 8.58, 8.85, 9.71, 10.01, 10.01, 10.3, 8.68, 7.6, 8.03, 9.0, 8.25, 6.72, 4.62, 2.88, 1.6, 0.0, -1.78, -1.78, -1.78, -3.49, -3.59, -1.88, 0.0, 0.0, 2.81, 4.44, 4.74, 4.98, 6.7, 5.29, 5.29, 4.8, 5.82, 6.3, 6.32, 7.9, 7.9, 7.9, 7.9, 6.58, 5.46, 5.21, 5.21, 6.01, 6.64, 6.64, 6.64, 7.56, 7.27, 7.9, 8.53, 9.08, 7.81, 7.56, 7.56, 6.95, 6.64, 7.9, 8.85, 10.75, 13.91, 12.98, 11.31, 15.62, 14.4, 13.17, 11.77, 10.41, 9.29, 8.2, 7.99, 7.98, 8.91, 9.34, 10.22, 9.59, 8.22, 7.78, 10.03, 11.64, 12.27, 11.16, 10.53, 10.79, 11.75, 11.66, 11.12, 11.16, 11.16, 3.01, 3.36, 5.02, 4.52, 4.38, 4.38, 5.81, 6.4, 7.82, 8.85, 9.71, 10.01, 10.01, 10.01, 9.33, 8.43, 8.68, 9.66, 9.92, 8.03, 4.62, 1.46, 1.56, 1.51, 0.0, 0.0, -2.05, -2.05, 0.0, 0.0, 2.16, 3.88, 3.88, 5.65, 5.08, 4.66, 4.44, 5.29, 5.52, 5.29, 5.06, 6.14, 6.95, 6.95, 7.9, 7.9, 6.58, 6.58, 5.46, 4.88, 5.46, 5.46, 6.95, 6.95, 6.95, 6.3, 6.3, 6.58, 7.59, 7.9, 8.49, 8.15, 7.27, 6.3, 5.21, 4.98, 5.45, 7.44, 8.22, 9.2, 9.26, 10.47, 14.22, 12.64, 9.78, 8.25, 8.33, 7.85, 8.4, 8.21, 8.91, 10.59, 11.38, 10.18, 9.59, 10.03, 11.04, 11.04, 12.27, 13.27, 12.65, 11.28, 10.73, 11.75, 11.66, 11.39, 10.28, 10.28, 3.01, 3.36, 3.01, 4.52, 4.38, 4.38, 5.81, 7.58, 8.85, 9.6, 9.71, 10.01, 10.3, 10.3, 9.33, 11.06, 9.71, 11.06, 9.61, 6.8, 4.5, 5.09, 7.0, 8.21, 7.54, 6.14, 3.81, 7.6, 9.67, 8.53, 8.97, 8.56, 8.56, 7.21, 5.81, 3.6, 2.83, 2.47, 3.11, 3.53, 4.6, 5.45, 5.7, 6.3, 6.58, 6.58, 5.46, 4.88, 4.88, 4.88, 5.46, 6.14, 6.14, 5.46, 5.46, 6.58, 6.95, 7.59, 8.82, 8.22, 7.9, 7.59, 6.69, 5.36, 5.63, 4.99, 4.99, 5.95, 4.4, 3.47, 5.62, 8.25, 11.33, 9.89, 6.1, 4.43, 4.1, 5.23, 6.64, 8.41, 9.81, 10.59, 10.22, 8.76, 9.59, 10.66, 12.27, 12.72, 13.25, 12.97, 13.26, 12.27, 11.64, 11.69, 12.0, 10.98, 10.73, 10.73, 3.01, 3.01, 3.01, 4.38, 4.38, 5.63, 5.81, 7.58, 9.6, 10.43, 10.43, 10.75, 11.06, 11.69, 10.39, 10.1, 9.8, 9.8, 10.18, 8.06, 8.43, 11.38, 12.11, 13.24, 11.7, 10.76, 10.76, 10.69, 10.61, 9.99, 9.67, 8.78, 7.8, 6.71, 5.37, 5.19, 3.41, 2.08, 1.69, 1.4, 2.83, 3.61, 3.61, 4.5, 4.28, 5.54, 4.6, 4.05, 3.87, 4.2, 5.21, 5.86, 5.86, 5.46, 5.82, 7.06, 8.24, 7.35, 7.13, 7.56, 6.69, 6.58, 5.72, 5.72, 5.21, 5.46, 5.29, 4.44, 2.49, 1.6, 2.35, 4.1, 6.1, 3.82, 0.0, 0.0, 0.0, 1.07, 7.67, 8.06, 8.43, 8.46, 8.18, 7.89, 8.93, 10.55, 11.75, 12.01, 12.39, 12.39, 12.26, 12.62, 11.64, 11.66, 11.54, 10.99, 10.73, 10.73, 3.01, 3.01, 4.38, 4.38, 4.38, 5.63, 7.34, 9.31, 10.43, 10.75, 11.1, 12.0, 12.35, 12.22, 11.63, 11.06, 9.87, 9.8, 7.96, 9.12, 11.06, 12.36, 12.36, 10.69, 9.74, 9.74, 9.23, 9.12, 9.36, 9.01, 8.0, 7.8, 6.71, 6.71, 5.37, 5.23, 3.58, 2.13, 1.91, 1.69, 2.28, 3.11, 3.36, 4.07, 3.88, 4.8, 4.4, 3.87, 4.05, 4.4, 4.6, 5.86, 5.86, 6.95, 7.9, 7.4, 7.68, 7.27, 6.24, 6.58, 5.98, 5.72, 5.72, 5.98, 6.04, 5.9, 6.92, 5.2, 4.01, 3.32, 4.0, 3.3, 1.26, -2.84, -4.22, -1.41, 2.58, 5.71, 7.89, 8.16, 8.16, 7.67, 7.97, 9.67, 10.73, 11.28, 12.41, 12.52, 12.52, 11.79, 12.27, 12.26, 11.6, 10.55, 10.24, 9.89, 9.62, 9.62, 3.01, 4.38, 4.38, 4.38, 5.63, 6.73, 8.31, 10.12, 10.43, 11.54, 12.16, 12.65, 12.65, 12.82, 11.63, 10.47, 10.17, 9.22, 8.46, 9.49, 10.43, 10.15, 9.88, 8.93, 7.6, 8.0, 7.8, 7.4, 7.4, 7.03, 7.21, 6.71, 6.71, 5.51, 5.37, 5.37, 3.79, 3.36, 3.04, 2.71, 2.71, 3.36, 3.21, 3.36, 4.6, 4.4, 4.23, 2.7, 2.97, 4.2, 5.59, 5.86, 6.95, 7.56, 7.56, 7.9, 7.59, 7.13, 6.24, 5.46, 5.36, 6.31, 6.31, 6.42, 6.7, 7.1, 6.72, 5.2, 5.2, 7.44, 8.78, 10.18, 9.96, -4.88, 8.53, 8.2, 8.0, 7.75, 7.42, 6.07, 6.54, 7.38, 10.18, 12.3, 12.65, 12.27, 12.41, 13.1, 12.62, 11.79, 11.44, 11.15, 10.48, 9.85, 9.23, 9.23, 9.69, 9.69, 3.01, 3.01, 4.38, 4.38, 5.63, 7.34, 9.31, 10.12, 10.43, 11.54, 12.37, 12.89, 12.52, 11.06, 9.61, 8.97, 8.72, 8.46, 8.72, 9.49, 9.42, 8.93, 7.38, 7.38, 8.03, 8.47, 8.68, 8.47, 7.6, 6.66, 6.84, 5.23, 5.23, 5.23, 4.01, 4.01, 3.9, 3.58, 3.14, 2.82, 3.67, 3.51, 3.36, 4.2, 4.4, 5.06, 3.68, 2.97, 4.0, 5.86, 6.64, 6.95, 6.95, 6.95, 7.21, 7.56, 7.27, 7.48, 6.5, 5.2, 6.11, 7.27, 7.9, 7.48, 7.36, 7.36, 6.96, 5.35, 6.41, 7.72, 9.48, 11.7, 11.85, 16.66, 9.09, 7.36, 6.4, 5.81, 5.2, 3.78, 4.58, 7.45, 11.47, 13.89, 13.65, 12.65, 12.27, 11.95, 12.65, 11.94, 10.52, 10.15, 9.48, 9.17, 9.23, 8.9, 9.27, 9.27, 3.01, 3.01, 4.38, 4.38, 6.2, 7.34, 9.02, 9.31, 9.6, 10.75, 11.68, 12.02, 10.02, 7.76, 7.0, 6.35, 7.0, 7.59, 8.05, 9.23, 9.17, 9.42, 8.93, 7.16, 7.38, 8.03, 8.47, 7.08, 6.47, 5.81, 5.5, 5.09, 5.09, 3.9, 3.9, 3.9, 3.9, 3.69, 3.25, 3.06, 2.71, 2.59, 3.51, 4.6, 4.34, 4.0, 4.8, 4.4, 5.46, 5.46, 7.27, 6.95, 6.95, 6.32, 6.32, 6.64, 6.73, 7.59, 7.27, 6.7, 6.01, 7.15, 7.9, 8.12, 7.64, 8.15, 6.96, 7.78, 6.7, 6.31, 5.98, 8.0, 12.35, 14.95, 12.51, 8.74, 5.85, 3.98, 1.47, 1.04, 3.9, 7.58, 10.78, 12.43, 12.22, 11.54, 11.2, 11.17, 10.61, 10.92, 10.12, 9.48, 9.17, 8.16, 8.57, 8.93, 8.93, 8.93, 3.01, 3.01, 3.01, 4.38, 4.38, 6.2, 7.34, 8.31, 8.57, 8.43, 8.43, 8.43, 6.16, 3.79, 3.79, 5.49, 7.0, 7.38, 7.38, 8.93, 8.93, 9.42, 9.42, 9.17, 8.68, 7.6, 6.9, 6.47, 6.47, 6.31, 5.81, 4.35, 3.79, 3.79, 3.9, 3.9, 2.65, 2.57, 3.76, 3.18, 2.71, 2.59, 3.65, 4.99, 4.78, 3.49, 3.06, 3.44, 3.44, 3.61, 3.7, 4.6, 5.59, 5.59, 6.32, 6.32, 6.64, 6.01, 7.27, 6.95, 7.68, 6.45, 6.83, 7.36, 7.24, 8.15, 8.37, 8.37, 7.36, 3.61, 3.53, 6.2, 11.45, 18.02, 15.8, 11.7, 8.18, 5.37, 3.2, 2.16, 5.3, 9.27, 11.17, 11.49, 11.14, 10.43, 9.7, 9.24, 9.11, 9.49, 9.81, 8.87, 9.17, 8.85, 8.93, 8.57, 8.27, 8.27, 3.01, 3.01, 3.01, 4.38, 4.38, 6.2, 6.2, 6.4, 6.6, 6.6, 6.8, 5.34, 4.95, 4.95, 5.49, 7.76, 7.76, 9.09, 8.29, 9.39, 9.39, 9.66, 10.19, 9.42, 8.03, 7.82, 6.54, 6.31, 6.47, 5.01, 4.47, 4.47, 4.01, 2.72, 2.65, 2.65, 2.65, 2.65, 2.8, 2.4, 2.94, 2.95, 3.99, 3.99, 4.18, 3.82, 2.59, 2.17, 1.36, 1.43, 1.68, 2.97, 5.06, 6.14, 6.64, 6.64, 6.64, 6.01, 7.21, 7.81, 7.27, 6.58, 6.18, 6.7, 6.84, 7.93, 8.53, 9.26, 6.31, 6.31, 7.59, 8.54, 10.54, 14.86, 18.65, 15.16, 12.12, 9.95, 7.2, 6.44, 7.69, 10.22, 11.2, 10.48, 10.07, 9.77, 9.11, 8.31, 8.05, 8.56, 10.27, 10.43, 10.25, 9.59, 8.57, 8.53, 8.27, 8.27, 2.72, 2.72, 3.01, 4.38, 4.38, 4.38, 4.38, 4.38, 5.31, 6.6, 6.8, 5.64, 5.81, 6.8, 7.6, 9.39, 10.18, 10.18, 10.18, 10.18, 10.18, 9.39, 9.66, 9.17, 8.03, 8.03, 5.98, 6.14, 6.31, 4.88, 4.47, 3.04, 3.04, 3.04, 2.72, 2.72, 2.72, 2.72, 2.96, 4.5, 4.38, 3.82, 3.08, 3.11, 2.95, 2.95, 1.84, 0.78, 0.0, 0.0, 1.84, 5.21, 5.9, 6.04, 5.9, 5.36, 5.46, 6.32, 5.69, 6.32, 6.98, 6.04, 6.5, 6.83, 7.95, 7.59, 9.0, 7.08, 6.97, 8.12, 8.93, 8.12, 9.24, 12.33, 15.42, 18.63, 14.64, 12.79, 10.47, 8.01, 8.37, 10.43, 10.12, 9.1, 8.94, 8.76, 8.86, 8.06, 7.49, 8.87, 9.36, 10.75, 11.63, 10.3, 9.17, 8.22, 8.94, 8.94, 2.72, 2.72, 3.01, 3.01, 4.38, 3.98, 3.98, 5.15, 5.92, 6.85, 7.06, 7.28, 7.28, 7.28, 8.72, 10.1, 10.3, 11.06, 10.18, 10.18, 10.18, 9.39, 9.39, 7.6, 7.82, 7.82, 7.2, 5.98, 4.75, 4.35, 2.96, 2.96, 3.04, 3.04, 2.79, 1.37, 2.72, 3.04, 4.88, 5.09, 4.66, 3.73, 2.19, 2.13, 2.02, 0.0, 0.0, 0.0, 0.0, 2.97, 6.11, 7.4, 7.27, 6.83, 6.15, 5.9, 5.21, 5.72, 6.01, 5.89, 5.64, 5.52, 5.9, 7.48, 7.48, 8.53, 6.98, 5.9, 6.31, 8.01, 8.56, 7.38, 6.94, 9.02, 11.79, 12.54, 14.21, 12.22, 11.37, 9.66, 8.45, 9.02, 9.66, 8.2, 7.34, 6.69, 7.16, 7.45, 8.31, 9.16, 9.32, 9.92, 11.38, 9.92, 9.32, 9.59, 10.66, 10.66, 1.38, 1.38, 2.72, 2.72, 3.98, 3.65, 4.74, 5.92, 6.85, 7.21, 6.6, 7.28, 6.47, 7.49, 9.77, 10.17, 10.1, 10.01, 9.89, 9.89, 10.18, 9.39, 9.39, 7.6, 7.6, 6.35, 6.35, 5.98, 4.35, 4.35, 2.96, 1.37, 1.5, 1.5, 1.5, 1.5, 1.5, 3.33, 5.37, 5.23, 3.07, 2.63, 2.28, 1.39, 1.16, 0.0, 0.0, 7.65, 10.2, 7.51, 8.43, 7.68, 6.95, 6.83, 6.7, 6.15, 5.95, 6.58, 5.63, 5.63, 4.83, 5.06, 5.64, 7.42, 7.48, 8.07, 6.84, 4.6, 3.65, 5.0, 6.43, 7.13, 5.6, 6.3, 6.85, 8.51, 10.2, 10.83, 10.99, 10.47, 9.66, 8.86, 8.72, 7.36, 6.4, 5.11, 5.11, 6.52, 8.31, 9.67, 9.16, 8.85, 7.98, 9.54, 9.73, 10.73, 11.77, 11.77, 1.38, 1.38, 2.72, 2.72, 3.98, 4.74, 5.73, 6.4, 6.4, 7.21, 6.4, 5.85, 6.29, 8.05, 10.05, 9.77, 10.1, 10.01, 9.89, 9.89, 10.18, 8.29, 8.29, 7.6, 7.6, 6.35, 6.17, 5.81, 4.23, 2.88, 1.34, 1.34, 0.0, 0.0, 0.0, 1.65, 1.65, 3.59, 3.69, 1.69, 1.6, 2.56, 2.45, 1.09, 0.0, 0.0, 4.9, 10.85, 11.42, 10.12, 8.73, 7.02, 6.95, 6.95, 6.42, 6.31, 5.76, 5.41, 5.95, 5.21, 4.34, 4.83, 5.9, 6.42, 7.27, 6.7, 6.57, 6.4, 3.81, 3.99, 5.0, 6.21, 6.94, 6.36, 3.07, 5.65, 7.8, 7.89, 8.68, 10.08, 10.26, 10.66, 8.64, 6.56, 5.42, 4.52, 4.87, 6.52, 8.05, 8.31, 7.74, 6.4, 6.94, 8.2, 10.02, 12.27, 12.93, 12.93, 1.33, 1.33, 2.72, 3.98, 4.74, 5.73, 6.2, 6.4, 7.21, 6.99, 6.99, 5.99, 6.8, 8.72, 10.39, 10.39, 9.77, 9.61, 9.39, 9.09, 9.09, 8.29, 8.29, 7.6, 7.6, 6.35, 5.64, 5.48, 2.72, 1.42, 0.0, 0.0, 0.0, 0.0, 1.6, 1.6, 1.65, 1.65, 1.65, 0.0, 1.65, 1.38, 1.29, 0.0, -0.89, 1.02, 6.67, 10.12, 10.58, 9.97, 8.69, 6.64, 6.24, 6.64, 6.14, 5.52, 5.41, 5.0, 5.14, 5.21, 4.56, 4.83, 5.29, 6.31, 5.76, 5.21, 5.64, 6.45, 5.92, 4.6, 4.88, 6.41, 8.57, 9.2, 6.36, 5.27, 7.05, 6.8, 6.47, 7.29, 8.81, 8.62, 7.31, 5.54, 4.56, 5.09, 6.35, 7.54, 7.26, 6.65, 5.67, 4.98, 5.55, 7.32, 10.22, 13.59, 13.67, 13.67, 1.33, 1.33, 2.63, 3.98, 5.15, 5.73, 6.2, 7.21, 7.21, 6.99, 7.73, 6.99, 6.99, 8.4, 9.61, 9.61, 8.97, 9.23, 8.93, 9.66, 9.66, 9.66, 7.6, 7.6, 7.6, 7.0, 5.64, 4.11, 3.49, 2.64, 1.42, 2.88, 3.16, 3.07, 3.07, 3.16, 2.88, 2.96, 1.5, 1.65, 1.65, 1.42, 1.38, 0.0, -0.93, 0.93, 4.65, 8.4, 9.32, 8.85, 7.68, 6.32, 5.94, 5.13, 5.04, 5.28, 4.6, 4.8, 5.14, 5.35, 4.8, 4.2, 4.96, 4.96, 4.34, 3.45, 3.81, 4.6, 4.72, 5.32, 6.3, 7.81, 8.24, 8.93, 10.08, 9.8, 7.4, 4.98, 4.91, 4.3, 5.16, 5.65, 4.44, 4.42, 5.46, 6.42, 8.61, 8.53, 5.99, 5.11, 4.1, 4.1, 4.98, 6.78, 10.43, 13.43, 13.57, 13.57, 1.33, 1.33, 1.33, 3.98, 5.15, 5.73, 6.64, 7.21, 6.78, 7.73, 7.32, 7.32, 7.32, 7.73, 8.97, 9.61, 8.05, 8.68, 9.61, 10.6, 8.93, 8.93, 7.82, 7.6, 7.38, 6.8, 5.64, 3.76, 3.65, 3.39, 3.88, 4.12, 4.23, 4.23, 4.23, 4.23, 4.23, 4.35, 4.35, 2.96, 2.96, 1.46, 1.3, 0.0, 0.0, 0.89, 3.81, 6.57, 8.31, 7.78, 6.64, 5.94, 5.13, 5.13, 5.04, 5.28, 4.96, 5.18, 5.41, 5.63, 5.41, 4.34, 4.66, 4.26, 4.12, 4.78, 3.99, 2.57, 3.45, 5.32, 7.27, 7.59, 5.2, 5.02, 8.23, 12.49, 8.4, 5.02, 3.75, 3.69, 3.41, 3.59, 3.9, 5.23, 7.23, 9.07, 8.68, 7.4, 4.81, 3.56, 2.81, 3.32, 4.36, 6.64, 11.9, 13.7, 13.44, 13.44, 0.0, 0.0, 1.33, 3.85, 5.15, 5.73, 6.64, 7.21, 7.5, 7.73, 7.32, 7.15, 6.94, 7.32, 8.72, 9.61, 8.68, 8.68, 9.61, 8.93, 8.93, 9.17, 8.93, 7.82, 7.38, 6.17, 5.64, 3.88, 3.88, 3.88, 3.88, 4.0, 3.79, 3.79, 4.23, 4.23, 5.5, 5.5, 5.23, 4.01, 4.01, 2.72, 1.38, 0.0, 0.0, 0.89, 3.68, 6.57, 8.31, 8.07, 6.58, 5.86, 5.86, 5.52, 5.78, 5.78, 5.7, 5.7, 5.18, 5.41, 5.77, 5.46, 4.96, 5.21, 4.5, 4.78, 4.8, 3.65, 4.66, 6.69, 7.48, 6.16, 2.93, 2.81, 5.95, 10.09, 9.07, 6.59, 4.85, 3.98, 4.54, 5.81, 7.4, 8.43, 7.99, 8.47, 7.65, 5.32, 3.36, 2.45, 2.53, 2.81, 3.04, 6.87, 12.39, 14.13, 13.28, 13.28, 0.0, 0.0, 2.63, 3.85, 5.15, 5.73, 6.64, 6.4, 6.99, 6.99, 7.54, 7.15, 7.15, 7.73, 8.85, 8.72, 8.43, 8.43, 8.43, 8.68, 8.93, 8.93, 8.28, 7.82, 7.6, 6.17, 5.64, 3.88, 3.88, 2.72, 2.72, 2.5, 2.5, 2.72, 2.8, 4.5, 4.62, 5.5, 4.35, 4.01, 3.72, 3.62, 1.26, 0.0, 0.0, 0.89, 3.68, 6.36, 7.44, 8.21, 6.7, 6.42, 5.78, 6.23, 6.23, 5.46, 5.7, 5.7, 5.18, 6.45, 5.86, 6.76, 4.66, 4.66, 4.88, 4.05, 4.56, 4.2, 4.96, 5.9, 5.86, 5.6, 3.73, 2.04, 4.03, 7.17, 9.68, 9.26, 8.8, 6.99, 7.15, 8.7, 9.61, 8.51, 7.2, 6.89, 5.32, 3.47, 2.63, 1.83, 1.77, 1.84, 2.72, 7.82, 12.33, 12.74, 12.79, 12.79, 1.33, 1.33, 2.63, 3.85, 5.15, 4.74, 5.5, 5.5, 6.18, 6.18, 6.8, 7.15, 7.54, 8.4, 8.85, 8.43, 7.82, 8.43, 8.43, 8.68, 7.6, 7.82, 7.2, 7.2, 7.6, 7.38, 5.64, 3.88, 3.88, 2.72, 2.5, 1.26, 1.34, 1.34, 2.89, 4.37, 4.5, 4.12, 4.23, 3.9, 3.9, 3.62, 3.79, 1.11, 0.0, 0.89, 3.55, 5.43, 7.44, 7.62, 7.26, 6.05, 6.23, 6.23, 5.46, 5.46, 5.7, 5.7, 5.7, 6.45, 6.7, 6.2, 4.6, 4.34, 4.2, 3.61, 3.45, 3.45, 4.0, 3.88, 4.54, 4.68, 4.58, 2.9, 3.58, 7.0, 9.92, 10.91, 11.14, 13.15, 11.53, 9.77, 8.36, 7.25, 5.9, 5.28, 4.13, 2.63, 1.71, 0.92, 0.99, 1.13, 3.44, 10.37, 11.12, 10.47, 10.65, 10.65, 1.17, 1.17, 2.63, 3.85, 3.65, 3.36, 3.22, 4.21, 5.3, 6.18, 6.8, 7.54, 7.97, 8.43, 8.18, 7.43, 7.82, 8.43, 7.38, 7.6, 7.6, 7.0, 7.2, 7.82, 7.6, 5.64, 5.64, 3.88, 2.64, 2.5, 2.5, 2.5, 2.64, 2.89, 2.89, 3.2, 4.24, 4.37, 4.12, 4.23, 3.9, 3.9, 3.69, 1.29, 0.85, 1.76, 3.42, 5.25, 6.53, 7.62, 7.54, 6.57, 6.05, 5.46, 5.46, 5.46, 5.7, 5.7, 5.95, 6.2, 6.7, 6.7, 5.1, 4.78, 4.2, 4.88, 3.27, 4.12, 3.32, 3.88, 4.92, 4.87, 4.74, 5.5, 6.47, 8.85, 8.68, 10.13, 10.9, 13.15, 13.36, 10.32, 8.93, 7.38, 5.81, 5.02, 3.91, 1.66, 0.96, 0.0, 0.0, 1.55, 4.65, 10.37, 10.37, 8.1, 5.8, 8.38, 1.17, 1.17, 2.4, 3.53, 3.36, 3.12, 3.0, 4.21, 5.3, 6.18, 7.21, 8.43, 8.43, 7.66, 7.66, 7.43, 7.06, 6.8, 6.8, 7.0, 7.0, 5.81, 7.0, 7.82, 7.6, 5.64, 4.24, 3.88, 2.64, 2.64, 2.5, 2.64, 2.64, 2.89, 2.89, 3.2, 3.1, 2.98, 4.37, 4.12, 4.12, 4.23, 3.88, 2.37, 2.39, 2.41, 3.42, 5.6, 7.2, 7.62, 7.36, 6.84, 5.41, 4.96, 4.96, 5.28, 5.52, 6.05, 6.57, 6.2, 6.7, 6.7, 6.5, 4.78, 4.34, 4.44, 4.96, 4.96, 5.06, 5.06, 5.52, 5.64, 4.43, 6.24, 10.07, 10.12, 6.4, 6.74, 9.42, 11.65, 10.57, 9.42, 8.4, 7.5, 5.99, 4.52, 3.01, 1.9, 1.21, 0.0, 0.0, 4.81, 7.51, 10.01, 7.51, 5.6, 3.44, 5.8, 1.17, 1.17, 2.32, 2.2, 2.11, 2.9, 3.93, 5.14, 6.6, 7.43, 7.66, 7.66, 7.66, 7.66, 7.66, 6.6, 7.06, 6.1, 6.8, 5.64, 5.81, 5.81, 7.6, 7.6, 6.35, 5.64, 4.24, 2.64, 2.56, 2.56, 2.64, 2.64, 2.64, 2.64, 2.81, 3.2, 3.1, 2.81, 2.98, 4.37, 4.5, 4.5, 2.64, 2.16, 2.1, 2.71, 4.38, 6.4, 7.68, 7.44, 6.96, 6.48, 4.8, 4.6, 5.28, 5.28, 5.52, 5.76, 6.0, 6.57, 6.7, 6.7, 5.04, 4.88, 5.21, 5.21, 5.1, 4.96, 5.06, 5.9, 5.52, 4.6, 4.72, 8.23, 10.76, 12.21, 10.0, 9.89, 9.67, 9.25, 8.5, 7.7, 7.65, 7.65, 6.17, 4.38, 3.46, 3.85, 4.1, 2.45, 4.65, 7.51, 8.85, 7.51, 4.65, 3.82, 1.71, 3.44, 1.08, 1.08, 2.13, 2.04, 2.81, 3.81, 4.66, 5.99, 6.78, 7.43, 7.43, 7.43, 7.66, 7.66, 6.6, 6.6, 6.1, 6.1, 6.6, 5.64, 6.8, 6.8, 7.38, 7.6, 5.81, 4.5, 4.24, 2.56, 2.56, 2.56, 2.56, 2.64, 2.64, 2.64, 2.81, 2.81, 2.81, 2.72, 2.81, 2.89, 2.89, 2.98, 1.42, 1.13, 1.91, 3.41, 5.85, 7.49, 7.06, 6.85, 6.64, 5.6, 4.8, 4.71, 4.71, 5.28, 5.52, 5.76, 5.76, 6.0, 6.08, 6.48, 6.21, 5.46, 5.21, 5.21, 4.5, 4.66, 4.96, 5.64, 5.52, 5.06, 6.24, 7.95, 10.17, 11.53, 14.73, 17.74, 17.22, 12.29, 9.42, 8.74, 9.55, 8.4, 7.04, 4.55, 4.81, 8.1, 7.78, 4.81, 5.6, 8.85, 7.51, 4.65, 2.45, 1.98, 1.98, 1.98, 1.9, 1.9, 1.97, 2.72, 3.68, 4.51, 5.46, 5.99, 6.4, 7.21, 7.43, 7.43, 7.43, 6.6, 6.6, 5.67, 6.1, 6.1, 6.6, 6.6, 6.8, 7.38, 7.38, 6.8, 5.64, 4.37, 4.24, 3.76, 2.56, 2.48, 2.48, 2.48, 2.56, 2.81, 2.81, 2.72, 2.72, 2.63, 2.72, 2.81, 2.81, 1.42, 1.38, 1.13, 1.0, 3.25, 5.67, 5.85, 5.5, 5.33, 5.55, 4.99, 4.71, 4.5, 4.71, 4.71, 5.14, 5.14, 6.0, 6.0, 6.24, 6.48, 6.24, 5.7, 5.46, 6.01, 5.21, 5.21, 4.96, 5.64, 5.06, 5.49, 6.24, 7.18, 8.23, 10.19, 14.06, 18.0, 20.23, 17.27, 15.45, 13.33, 12.4, 10.43, 8.55, 6.9, 7.82, 11.6, 7.78, 4.81, 6.94, 6.94, 5.6, 2.45, 0.0, 7.24, 7.24, 7.24, 1.9, 1.9, 2.92, 3.56, 3.68, 3.68, 4.66, 4.97, 6.2, 6.4, 6.4, 6.6, 6.6, 6.6, 6.6, 5.67, 6.1, 6.1, 6.1, 6.6, 7.38, 7.38, 7.38, 5.64, 5.64, 5.64, 4.24, 4.11, 3.65, 2.48, 2.4, 2.4, 2.4, 2.72, 2.81, 2.63, 2.63, 2.4, 2.63, 2.63, 2.72, 2.72, 2.4, 2.16, 2.08, 3.41, 4.89, 5.92, 5.16, 4.81, 4.99, 4.62, 3.88, 4.5, 4.71, 4.71, 5.52, 5.52, 6.41, 6.0, 6.24, 6.48, 6.48, 6.7, 6.42, 6.3, 5.21, 6.3, 5.21, 5.06, 4.83, 5.49, 6.14, 7.36, 7.24, 8.18, 10.43, 13.36, 16.17, 18.65, 18.34, 16.2, 15.91, 14.18, 10.88, 8.06, 10.41, 9.17, 5.8, 5.8, 8.85, 6.94, 2.93, 0.0, 2.37, 10.8, 10.8, 10.8, 2.62, 2.62, 2.72, 3.56, 3.68, 3.68, 4.08, 4.97, 5.5, 6.4, 6.4, 6.6, 6.6, 6.6, 5.67, 5.67, 6.1, 6.1, 6.6, 6.6, 7.38, 7.38, 6.17, 5.64, 5.64, 5.64, 4.24, 4.11, 3.98, 2.4, 2.4, 2.4, 2.4, 2.63, 2.63, 2.63, 2.54, 2.4, 3.53, 3.85, 3.85, 3.85, 3.41, 3.06, 2.94, 4.12, 4.58, 4.58, 4.58, 4.64, 4.62, 4.25, 4.0, 4.83, 4.71, 5.29, 5.29, 5.52, 5.75, 6.0, 6.0, 6.24, 6.48, 6.67, 7.73, 5.46, 4.66, 4.96, 5.21, 5.21, 5.72, 6.64, 6.42, 6.45, 7.24, 7.12, 7.93, 9.66, 12.59, 13.69, 16.17, 17.17, 16.97, 15.82, 13.14, 12.29, 16.09, 9.17, 5.8, 8.85, 9.17, 0.0, 0.0, 2.37, 8.53, 11.57, 11.57, 11.57, 2.62, 2.62, 2.72, 2.72, 3.56, 3.68, 3.94, 5.33, 5.5, 5.5, 5.5, 5.5, 5.67, 5.67, 5.67, 5.67, 6.1, 6.1, 6.6, 6.6, 6.6, 6.17, 6.17, 5.64, 5.64, 5.64, 4.24, 4.11, 3.98, 2.48, 2.4, 2.32, 2.32, 2.54, 2.54, 2.54, 2.54, 2.54, 3.85, 3.73, 3.73, 3.73, 3.41, 3.06, 2.94, 4.12, 4.43, 4.43, 4.43, 4.12, 4.62, 4.07, 4.0, 4.2, 4.4, 5.06, 5.29, 5.52, 5.75, 6.41, 6.0, 6.0, 6.92, 7.54, 6.41, 5.7, 5.21, 4.5, 5.21, 5.21, 5.76, 6.42, 6.31, 6.2, 6.45, 6.33, 7.25, 7.93, 9.6, 11.35, 13.67, 15.79, 16.9, 15.29, 13.95, 13.41, 0.0, 13.41, 9.17, 9.17, 0.0, 0.0, 2.93, 7.24, 11.28, 12.07, 12.07, 12.07, 2.62, 2.62, 2.72, 2.72, 3.68, 3.68, 3.94, 4.38, 4.38, 5.92, 5.92, 5.92, 6.1, 5.67, 5.67, 5.67, 6.1, 6.1, 6.6, 6.6, 6.6, 5.64, 5.64, 5.64, 5.64, 4.37, 4.24, 4.11, 3.98, 3.98, 2.4, 2.32, 2.32, 2.45, 2.45, 2.45, 2.45, 2.45, 3.73, 3.73, 3.73, 3.73, 3.41, 3.47, 3.21, 4.48, 4.28, 3.29, 4.28, 3.97, 4.44, 4.4, 4.0, 4.2, 4.4, 5.06, 5.29, 5.52, 5.75, 5.75, 6.15, 6.41, 6.67, 7.54, 7.26, 5.7, 4.0, 5.59, 6.3, 7.27, 6.53, 6.42, 6.31, 6.57, 6.45, 6.7, 7.38, 8.05, 9.24, 9.7, 11.64, 15.13, 16.29, 16.76, 15.92, 16.44, 12.96, 13.41, 9.17, 0.0, 3.96, 5.6, 7.24, 10.4, 11.62, 11.96, 11.96, 11.96, 2.62, 2.62, 2.72, 2.72, 2.72, 3.68, 4.08, 4.38, 4.38, 5.73, 5.92, 5.92, 5.92, 6.1, 5.67, 5.67, 6.1, 6.1, 6.6, 6.4, 5.31, 5.48, 5.64, 5.64, 5.64, 4.37, 4.24, 4.11, 3.98, 3.98, 2.63, 2.4, 2.32, 2.45, 2.45, 2.37, 2.37, 2.45, 3.6, 3.6, 3.6, 3.6, 3.6, 3.47, 3.21, 3.47, 3.29, 3.29, 4.12, 4.62, 4.8, 4.6, 4.2, 4.0, 4.2, 5.46, 5.29, 5.29, 5.52, 5.52, 6.15, 6.15, 6.67, 7.41, 7.14, 5.95, 5.21, 6.64, 6.3, 6.48, 6.31, 6.42, 6.7, 6.57, 7.36, 7.24, 8.01, 8.66, 9.7, 9.7, 10.31, 13.28, 15.02, 18.19, 16.47, 22.39, 8.6, 12.96, 0.0, 0.0, 3.82, 6.97, 8.22, 11.11, 11.96, 12.74, 12.74, 12.74, 2.62, 2.62, 2.72, 2.72, 2.72, 3.02, 4.08, 4.38, 5.33, 5.92, 5.92, 5.92, 6.1, 6.1, 5.67, 5.67, 6.1, 6.1, 5.04, 5.48, 5.48, 5.48, 5.64, 5.64, 5.64, 4.24, 4.24, 4.11, 3.98, 3.85, 2.63, 2.63, 2.32, 2.45, 2.45, 2.37, 2.37, 2.37, 3.47, 3.6, 3.6, 3.6, 3.6, 3.47, 3.34, 3.6, 3.41, 4.28, 3.97, 4.8, 4.6, 4.4, 4.4, 4.2, 5.21, 4.78, 4.4, 4.6, 5.7, 5.95, 5.95, 6.15, 6.86, 7.41, 7.65, 6.98, 5.9, 6.18, 5.9, 5.76, 6.04, 6.95, 6.42, 7.48, 7.36, 8.12, 8.42, 8.76, 9.8, 9.8, 9.36, 11.18, 14.5, 16.31, 16.76, 19.28, 13.86, 9.17, 6.0, 5.8, 5.4, 7.24, 10.73, 12.91, 12.58, 12.58, 12.58, 12.58, 2.62, 1.77, 2.72, 2.72, 2.72, 3.02, 4.38, 4.38, 5.33, 5.5, 5.92, 5.92, 6.1, 6.1, 4.66, 4.66, 5.04, 5.04, 5.04, 5.48, 5.48, 5.48, 5.64, 5.64, 5.48, 5.48, 4.24, 4.11, 3.98, 3.98, 3.85, 2.63, 2.54, 2.45, 2.45, 2.37, 2.37, 2.37, 3.47, 3.47, 3.47, 3.47, 3.47, 3.47, 3.47, 3.6, 3.41, 4.28, 4.32, 4.8, 3.82, 3.65, 4.4, 4.34, 4.56, 4.56, 4.78, 4.78, 4.78, 5.7, 5.7, 5.7, 6.59, 7.14, 7.95, 7.56, 6.69, 6.48, 6.77, 6.95, 6.95, 6.95, 6.18, 7.59, 7.48, 8.12, 8.85, 8.85, 8.76, 9.06, 9.06, 9.48, 10.83, 13.16, 13.74, 19.34, 14.75, 8.85, 8.05, 8.66, 8.66, 9.48, 13.28, 13.5, 12.72, 12.3, 12.3, 12.3, 1.77, 1.77, 2.62, 2.72, 2.92, 2.92, 4.24, 4.38, 4.38, 5.5, 5.5, 6.1, 5.04, 4.66, 4.66, 4.66, 5.04, 5.04, 5.04, 5.04, 5.48, 5.48, 5.48, 5.48, 5.48, 5.48, 4.24, 4.11, 3.98, 3.98, 2.63, 2.63, 2.54, 2.54, 2.45, 2.37, 2.37, 3.68, 3.68, 3.34, 3.47, 3.47, 3.82, 3.68, 3.47, 3.6, 3.73, 4.65, 4.48, 4.15, 3.82, 3.99, 3.99, 4.34, 4.56, 4.56, 4.56, 4.78, 4.78, 4.78, 5.7, 5.7, 6.59, 7.36, 7.95, 6.97, 6.98, 7.27, 7.74, 7.68, 7.27, 7.27, 6.95, 6.95, 7.59, 8.22, 8.53, 8.12, 8.12, 8.42, 8.72, 8.72, 8.78, 9.37, 11.35, 11.09, 8.68, 8.53, 5.6, 7.36, 6.6, 10.12, 14.3, 13.25, 12.45, 12.72, 12.72, 12.72, 1.9, 1.9, 2.81, 2.92, 2.92, 3.81, 4.24, 4.38, 4.38, 5.5, 5.5, 5.67, 4.66, 4.66, 4.66, 5.04, 5.04, 5.04, 5.04, 5.04, 5.48, 5.48, 5.48, 5.48, 5.48, 5.48, 4.11, 4.11, 3.98, 3.85, 2.63, 2.54, 2.54, 2.54, 2.45, 2.37, 2.37, 3.68, 3.68, 3.68, 3.34, 3.68, 3.68, 3.68, 3.34, 3.34, 4.48, 4.48, 4.48, 4.15, 3.08, 4.18, 3.99, 3.81, 4.34, 4.34, 4.56, 4.56, 4.56, 5.46, 5.46, 6.17, 6.77, 7.36, 6.97, 7.24, 7.73, 7.9, 7.27, 6.95, 6.53, 7.27, 7.27, 8.02, 7.27, 8.31, 8.22, 7.82, 7.48, 7.78, 8.53, 8.42, 8.58, 9.3, 10.07, 6.04, 0.0, 0.0, 0.0, 2.72, 6.6, 11.33, 14.68, 13.67, 12.87, 13.15, 13.15, 13.15, 2.81, 2.81, 2.81, 2.81, 2.92, 3.81, 4.24, 4.24, 4.38, 4.38, 4.52, 4.52, 4.66, 5.04, 5.04, 5.04, 5.04, 5.04, 5.04, 5.19, 5.48, 5.48, 5.48, 5.48, 5.48, 5.31, 4.11, 4.11, 3.98, 3.85, 2.63, 2.54, 2.54, 2.45, 2.45, 2.37, 2.62, 3.68, 3.68, 3.53, 3.68, 3.68, 2.52, 2.52, 3.21, 3.53, 3.68, 3.68, 3.34, 3.21, 3.39, 3.25, 4.4, 3.99, 4.56, 4.34, 4.34, 4.34, 4.56, 5.21, 5.63, 5.9, 6.77, 7.06, 6.71, 6.97, 7.85, 7.9, 6.69, 6.48, 6.48, 6.83, 7.59, 7.59, 7.9, 7.9, 8.31, 8.22, 7.9, 7.59, 8.31, 8.42, 11.6, 11.36, 11.8, 4.03, 0.0, -6.2, 0.0, 5.15, 9.44, 12.27, 14.51, 13.94, 13.28, 13.47, 13.47, 13.47, 2.81, 2.81, 2.81, 2.81, 3.68, 4.1, 4.24, 4.38, 5.33, 5.33, 5.33, 5.5, 5.04, 5.04, 5.04, 5.04, 5.04, 5.04, 5.04, 5.64, 5.64, 5.48, 5.48, 5.48, 5.31, 5.31, 4.11, 3.98, 3.98, 2.63, 2.63, 2.54, 2.54, 2.45, 2.45, 2.37, 2.62, 2.52, 2.52, 2.42, 2.42, 2.52, 2.52, 2.42, 3.53, 3.39, 3.39, 3.39, 3.39, 3.39, 3.39, 4.6, 4.4, 5.21, 4.78, 4.56, 4.34, 4.34, 4.34, 5.21, 5.63, 5.63, 5.9, 6.17, 6.71, 6.97, 7.56, 7.9, 7.59, 6.4, 5.9, 6.77, 6.83, 7.59, 7.59, 7.68, 8.31, 8.31, 8.31, 8.31, 8.64, 8.53, 11.43, 14.69, 14.09, 6.17, 0.0, 3.25, 7.13, 10.12, 11.1, 11.93, 14.42, 14.58, 13.15, 13.28, 13.28, 13.28, 2.81, 2.81, 2.81, 3.68, 3.96, 3.96, 4.1, 4.24, 5.16, 5.16, 5.33, 5.92, 5.92, 6.1, 6.1, 6.1, 6.1, 6.1, 6.6, 6.8, 5.64, 5.64, 5.64, 5.48, 5.31, 5.31, 4.11, 3.98, 3.98, 2.63, 2.54, 2.54, 2.45, 2.45, 2.45, 2.62, 2.62, 2.52, 2.42, 2.42, 2.42, 2.42, 2.42, 2.42, 2.33, 2.33, 2.33, 2.33, 3.25, 3.25, 4.18, 4.6, 5.45, 5.21, 4.78, 4.56, 4.56, 4.34, 4.74, 4.74, 4.98, 4.98, 5.9, 6.17, 6.44, 6.71, 7.27, 7.9, 6.77, 5.21, 6.17, 6.77, 7.59, 7.42, 7.42, 7.27, 7.4, 7.68, 7.59, 7.59, 7.9, 8.49, 9.16, 12.79, 12.59, 10.67, 5.65, 7.19, 9.21, 9.87, 11.25, 12.16, 13.78, 15.2, 13.39, 13.15, 13.15, 13.15, 3.68, 3.68, 3.68, 3.96, 4.1, 4.1, 4.1, 4.99, 5.16, 5.16, 5.73, 5.92, 5.92, 6.1, 6.1, 6.1, 6.1, 6.6, 6.6, 6.6, 6.8, 6.8, 5.64, 5.48, 5.31, 5.31, 4.11, 3.98, 3.85, 2.63, 2.54, 2.45, 2.45, 2.45, 2.62, 2.62, 2.62, 2.52, 2.52, 2.42, 2.42, 1.23, 1.23, 1.23, 2.33, 2.33, 2.33, 3.25, 3.25, 4.18, 4.6, 5.45, 6.17, 5.21, 4.78, 4.78, 4.56, 4.34, 4.74, 4.74, 4.74, 4.98, 5.21, 5.45, 5.45, 6.44, 6.44, 6.98, 6.17, 5.98, 6.69, 7.59, 7.06, 7.9, 7.59, 7.27, 6.95, 6.95, 7.27, 7.13, 6.41, 6.48, 6.78, 7.53, 8.5, 9.75, 11.72, 8.67, 8.4, 8.65, 10.22, 11.68, 12.52, 15.58, 13.77, 13.39, 13.39, 13.39, 3.68, 3.68, 3.68, 3.96, 4.1, 4.99, 4.99, 5.16, 5.55, 5.55, 5.73, 5.73, 5.92, 6.1, 6.1, 6.1, 6.6, 6.6, 6.6, 6.8, 6.8, 6.8, 5.64, 5.48, 5.31, 4.11, 3.98, 4.38, 4.24, 2.81, 2.81, 2.72, 2.72, 2.62, 2.62, 2.62, 2.52, 2.52, 2.52, 1.23, 1.23, 1.23, 1.23, 1.18, 1.18, 2.33, 2.33, 3.61, 3.25, 4.6, 5.45, 5.21, 5.45, 4.78, 4.78, 4.78, 4.56, 4.56, 4.0, 3.8, 4.0, 4.0, 4.2, 5.21, 5.21, 5.21, 6.17, 5.98, 5.45, 6.87, 6.98, 6.98, 6.44, 7.36, 7.06, 6.77, 6.48, 5.63, 6.48, 5.52, 5.0, 4.47, 4.97, 4.12, 5.57, 7.4, 10.78, 10.87, 7.76, 8.2, 9.91, 11.25, 11.58, 14.53, 14.42, 13.39, 13.39, 13.39, 4.49, 4.49, 4.49, 4.81, 4.99, 4.99, 5.36, 5.55, 5.55, 5.55, 5.73, 5.73, 5.92, 5.92, 6.1, 6.4, 6.4, 6.6, 6.6, 6.6, 6.8, 6.8, 5.64, 5.64, 5.31, 3.98, 4.38, 4.38, 4.24, 2.81, 2.81, 2.72, 2.72, 2.62, 2.62, 2.62, 2.62, 2.52, 1.28, 1.23, 0.0, 0.0, 0.0, 1.33, 1.18, 1.18, 2.23, 3.61, 3.61, 4.6, 4.6, 5.21, 5.21, 4.78, 4.78, 4.56, 4.56, 3.81, 3.81, 4.0, 3.8, 3.8, 4.0, 4.0, 4.2, 4.2, 5.21, 4.4, 4.4, 5.21, 4.78, 4.8, 5.69, 6.17, 6.17, 5.7, 5.7, 4.78, 3.99, 4.8, 3.82, 3.68, 3.94, 4.01, 5.5, 7.07, 8.47, 8.88, 7.75, 8.33, 10.77, 11.06, 10.52, 13.39, 15.09, 13.78, 13.78, 13.78, 4.49, 4.49, 4.49, 4.81, 4.81, 4.99, 5.36, 5.36, 5.55, 5.55, 5.73, 5.73, 5.92, 5.92, 5.92, 6.4, 6.4, 6.4, 6.6, 6.6, 6.6, 6.8, 5.64, 5.48, 4.11, 3.98, 4.38, 4.24, 4.24, 2.81, 2.81, 2.72, 2.62, 2.62, 2.62, 2.62, 2.62, 1.28, 1.28, 0.0, 0.0, 0.0, 0.0, 0.0, 1.18, 1.18, 1.14, 2.49, 2.49, 3.61, 4.4, 4.4, 4.78, 4.78, 4.78, 4.56, 3.81, 3.63, 3.81, 3.63, 3.63, 3.8, 3.8, 4.0, 4.0, 4.2, 4.2, 4.2, 4.2, 4.4, 4.4, 5.54, 5.54, 5.0, 4.4, 4.99, 4.99, 4.99, 3.82, 3.98, 3.82, 3.82, 3.94, 5.09, 6.36, 8.34, 8.7, 8.43, 8.9, 11.04, 11.06, 11.13, 9.92, 12.36, 16.27, 13.99, 13.99, 13.99, 4.49, 4.49, 4.99, 4.99, 4.99, 4.99, 5.36, 5.36, 5.36, 5.55, 5.55, 5.73, 5.92, 5.92, 5.92, 6.4, 6.4, 6.4, 6.4, 6.6, 6.6, 5.48, 5.48, 5.48, 4.11, 3.98, 3.98, 4.24, 4.24, 2.81, 2.81, 2.72, 2.62, 2.62, 2.62, 2.52, 1.28, 1.28, 0.0, 0.0, 0.0, 0.0, 0.0, 0.0, 0.0, 0.0, 1.18, 1.14, 2.49, 2.49, 4.4, 4.4, 3.99, 4.78, 4.2, 4.2, 3.49, 3.63, 3.63, 3.63, 3.63, 3.45, 2.98, 2.98, 3.14, 3.14, 3.14, 3.3, 3.3, 3.3, 3.45, 3.99, 3.99, 3.19, 3.25, 4.18, 4.18, 4.6, 4.6, 3.98, 4.62, 3.68, 4.65, 5.64, 7.32, 8.95, 9.68, 10.54, 10.91, 11.04, 10.61, 10.61, 8.9, 10.43, 16.46, 13.51, 13.51, 13.51, 4.49, 4.49, 4.99, 4.99, 4.99, 4.99, 5.36, 5.36, 5.36, 5.55, 5.55, 5.73, 5.92, 5.92, 5.92, 6.4, 6.4, 6.4, 6.4, 6.6, 6.6, 5.48, 5.48, 5.48, 4.11, 3.98, 3.98, 4.24, 4.24, 2.81, 2.81, 2.72, 2.62, 2.62, 2.62, 2.52, 1.28, 1.28, 0.0, 0.0, 0.0, 0.0, 0.0, 0.0, 0.0, 0.0, 1.18, 1.14, 2.49, 2.49, 4.4, 4.4, 3.99, 4.78, 4.2, 4.2, 3.49, 3.63, 3.63, 3.63, 3.63, 3.45, 2.98, 2.98, 3.14, 3.14, 3.14, 3.3, 3.3, 3.3, 3.45, 3.99, 3.99, 3.19, 3.25, 4.18, 4.6, 4.6, 4.6, 3.98, 4.62, 4.3, 4.33, 5.63, 7.6, 9.64, 11.41, 11.69, 12.27, 11.53, 11.32, 10.25, 8.0, 10.73, 16.44, 13.2, 13.2, 13.2]}]